Time,TemperatureF,DewpointF,PressureIn,WindDirection,WindDirectionDegrees,WindSpeedMPH,WindSpeedGustMPH,Humidity,HourlyPrecipIn,Conditions,Clouds,dailyrainin,SoftwareType,DateUTC
2013-07-01 00:02:00,70.2,64.4,29.59,NW,311,0.0,3.0,82,0.00,,,0.02,Wunderground v.1.15,2013-07-01 05:02:00,
2013-07-01 00:03:00,70.2,64.8,29.59,NW,311,0.0,3.0,83,0.00,,,0.02,Wunderground v.1.15,2013-07-01 05:03:00,
2013-07-01 00:04:00,70.2,64.8,29.59,NW,311,0.0,3.0,83,0.00,,,0.02,Wunderground v.1.15,2013-07-01 05:04:00,
2013-07-01 00:05:00,70.2,64.8,29.59,NW,311,0.0,3.0,83,0.00,,,0.02,Wunderground v.1.15,2013-07-01 05:05:00,
2013-07-01 00:10:00,70.1,64.7,29.59,NW,311,0.0,0.0,83,0.00,,,0.00,Wunderground v.1.15,2013-07-01 05:10:00,
2013-07-01 00:11:00,70.1,64.7,29.59,NW,313,0.0,0.0,83,0.00,,,0.00,Wunderground v.1.15,2013-07-01 05:11:00,
2013-07-01 00:14:00,70.2,64.8,29.58,NE,42,0.0,0.0,83,0.00,,,0.00,Wunderground v.1.15,2013-07-01 05:14:00,
2013-07-01 00:17:00,70.2,65.1,29.58,NE,42,0.0,0.0,84,0.00,,,0.00,Wunderground v.1.15,2013-07-01 05:17:00,
2013-07-01 00:18:00,70.3,65.2,29.58,NE,42,0.0,0.0,84,0.00,,,0.00,Wunderground v.1.15,2013-07-01 05:18:00,
2013-07-01 00:20:00,70.3,64.9,29.58,North,9,0.0,0.0,83,0.00,,,0.00,Wunderground v.1.15,2013-07-01 05:20:00,
2013-07-01 00:21:00,70.3,64.9,29.58,NE,43,0.0,0.0,83,0.00,,,0.00,Wunderground v.1.15,2013-07-01 05:21:00,
2013-07-01 00:22:00,70.4,65.0,29.58,NW,321,0.0,0.0,83,0.00,,,0.00,Wunderground v.1.15,2013-07-01 05:22:00,
2013-07-01 00:24:00,70.4,65.0,29.58,NW,321,0.0,0.0,83,0.00,,,0.00,Wunderground v.1.15,2013-07-01 05:24:00,
2013-07-01 00:27:00,70.5,65.1,29.58,WNW,295,0.0,0.0,83,0.00,,,0.00,Wunderground v.1.15,2013-07-01 05:27:00,
2013-07-01 00:29:00,70.6,65.2,29.58,NE,48,0.0,0.0,83,0.00,,,0.00,Wunderground v.1.15,2013-07-01 05:29:00,
2013-07-01 00:30:00,70.6,65.2,29.58,NE,48,0.0,0.0,83,0.00,,,0.00,Wunderground v.1.15,2013-07-01 05:30:00,
2013-07-01 00:34:00,70.6,65.2,29.58,NNW,332,0.0,0.0,83,0.00,,,0.00,Wunderground v.1.15,2013-07-01 05:34:00,
2013-07-01 00:35:00,70.6,65.2,29.58,NNW,332,0.0,0.0,83,0.00,,,0.00,Wunderground v.1.15,2013-07-01 05:35:00,
2013-07-01 00:39:00,70.6,65.2,29.58,North,5,3.0,3.0,83,0.00,,,0.00,Wunderground v.1.15,2013-07-01 05:39:00,
2013-07-01 00:40:00,70.6,65.2,29.58,NE,36,0.0,3.0,83,0.00,,,0.00,Wunderground v.1.15,2013-07-01 05:40:00,
2013-07-01 00:41:00,70.6,65.2,29.58,NW,317,0.0,3.0,83,0.00,,,0.00,Wunderground v.1.15,2013-07-01 05:41:00,
2013-07-01 00:45:00,70.6,65.2,29.58,NW,317,0.0,0.0,83,0.00,,,0.00,Wunderground v.1.15,2013-07-01 05:45:00,
2013-07-01 00:46:00,70.6,65.2,29.58,NW,317,0.0,0.0,83,0.00,,,0.00,Wunderground v.1.15,2013-07-01 05:46:00,
2013-07-01 00:48:00,70.5,65.4,29.58,NW,317,0.0,0.0,84,0.00,,,0.00,Wunderground v.1.15,2013-07-01 05:48:00,
2013-07-01 00:49:00,70.5,65.4,29.58,NW,317,0.0,0.0,84,0.00,,,0.00,Wunderground v.1.15,2013-07-01 05:49:00,
2013-07-01 00:55:00,70.3,65.2,29.58,NW,317,0.0,0.0,84,0.00,,,0.00,Wunderground v.1.15,2013-07-01 05:55:00,
2013-07-01 00:56:00,70.2,65.5,29.58,NW,317,0.0,0.0,85,0.00,,,0.00,Wunderground v.1.15,2013-07-01 05:56:00,
2013-07-01 00:57:00,70.2,65.5,29.58,NW,317,0.0,0.0,85,0.00,,,0.00,Wunderground v.1.15,2013-07-01 05:57:00,
2013-07-01 01:02:00,70.0,65.3,29.58,NW,317,0.0,0.0,85,0.00,,,0.00,Wunderground v.1.15,2013-07-01 06:02:00,
2013-07-01 01:03:00,69.9,65.2,29.58,NW,317,0.0,0.0,85,0.00,,,0.00,Wunderground v.1.15,2013-07-01 06:03:00,
2013-07-01 01:04:00,69.9,65.5,29.58,NW,317,0.0,0.0,86,0.00,,,0.00,Wunderground v.1.15,2013-07-01 06:04:00,
2013-07-01 01:05:00,69.8,65.4,29.58,NW,317,0.0,0.0,86,0.00,,,0.00,Wunderground v.1.15,2013-07-01 06:05:00,
2013-07-01 01:08:00,69.7,65.3,29.58,NW,317,0.0,0.0,86,0.00,,,0.00,Wunderground v.1.15,2013-07-01 06:08:00,
2013-07-01 01:09:00,69.6,65.2,29.58,NW,317,0.0,0.0,86,0.00,,,0.00,Wunderground v.1.15,2013-07-01 06:09:00,
2013-07-01 01:11:00,69.5,65.1,29.58,NW,317,0.0,0.0,86,0.00,,,0.00,Wunderground v.1.15,2013-07-01 06:11:00,
2013-07-01 01:12:00,69.5,65.1,29.58,NW,317,0.0,0.0,86,0.00,,,0.00,Wunderground v.1.15,2013-07-01 06:12:00,
2013-07-01 01:15:00,69.4,65.4,29.58,NW,317,0.0,0.0,87,0.00,,,0.00,Wunderground v.1.15,2013-07-01 06:15:00,
2013-07-01 01:16:00,69.3,65.3,29.58,NW,317,0.0,0.0,87,0.00,,,0.00,Wunderground v.1.15,2013-07-01 06:16:00,
2013-07-01 01:18:00,69.2,65.2,29.58,NW,317,0.0,0.0,87,0.00,,,0.00,Wunderground v.1.15,2013-07-01 06:18:00,
2013-07-01 01:20:00,69.0,65.0,29.58,NW,317,0.0,0.0,87,0.00,,,0.00,Wunderground v.1.15,2013-07-01 06:20:00,
2013-07-01 01:21:00,69.0,65.3,29.58,NW,317,0.0,0.0,88,0.00,,,0.00,Wunderground v.1.15,2013-07-01 06:21:00,
2013-07-01 01:22:00,68.9,65.2,29.58,NW,317,0.0,0.0,88,0.00,,,0.00,Wunderground v.1.15,2013-07-01 06:22:00,
2013-07-01 01:26:00,68.6,64.9,29.58,NW,317,0.0,0.0,88,0.00,,,0.00,Wunderground v.1.15,2013-07-01 06:26:00,
2013-07-01 01:27:00,68.5,64.8,29.58,NW,317,0.0,0.0,88,0.00,,,0.00,Wunderground v.1.15,2013-07-01 06:27:00,
2013-07-01 01:28:00,68.4,64.7,29.58,NW,317,0.0,0.0,88,0.00,,,0.00,Wunderground v.1.15,2013-07-01 06:28:00,
2013-07-01 01:29:00,68.3,64.9,29.58,NW,317,0.0,0.0,89,0.00,,,0.00,Wunderground v.1.15,2013-07-01 06:29:00,
2013-07-01 01:33:00,68.0,64.6,29.58,NW,317,0.0,0.0,89,0.00,,,0.00,Wunderground v.1.15,2013-07-01 06:33:00,
2013-07-01 01:34:00,68.0,64.6,29.58,NW,317,0.0,0.0,89,0.00,,,0.00,Wunderground v.1.15,2013-07-01 06:34:00,
2013-07-01 01:36:00,67.9,64.5,29.58,NW,317,0.0,0.0,89,0.00,,,0.00,Wunderground v.1.15,2013-07-01 06:36:00,
2013-07-01 01:38:00,67.8,64.8,29.58,NW,317,0.0,0.0,90,0.00,,,0.00,Wunderground v.1.15,2013-07-01 06:38:00,
2013-07-01 01:39:00,67.8,64.8,29.58,NW,317,0.0,0.0,90,0.00,,,0.00,Wunderground v.1.15,2013-07-01 06:39:00,
2013-07-01 01:40:00,67.7,64.7,29.58,NW,317,0.0,0.0,90,0.00,,,0.00,Wunderground v.1.15,2013-07-01 06:40:00,
2013-07-01 01:42:00,67.7,64.7,29.58,NW,317,0.0,0.0,90,0.00,,,0.00,Wunderground v.1.15,2013-07-01 06:42:00,
2013-07-01 01:43:00,67.6,64.6,29.58,NW,317,0.0,0.0,90,0.00,,,0.00,Wunderground v.1.15,2013-07-01 06:43:00,
2013-07-01 01:46:00,67.5,64.5,29.58,NW,317,0.0,0.0,90,0.00,,,0.00,Wunderground v.1.15,2013-07-01 06:46:00,
2013-07-01 01:47:00,67.5,64.5,29.58,NW,317,0.0,0.0,90,0.00,,,0.00,Wunderground v.1.15,2013-07-01 06:47:00,
2013-07-01 01:48:00,67.4,64.4,29.58,NW,317,0.0,0.0,90,0.00,,,0.00,Wunderground v.1.15,2013-07-01 06:48:00,
2013-07-01 01:49:00,67.4,64.7,29.58,NW,317,0.0,0.0,91,0.00,,,0.00,Wunderground v.1.15,2013-07-01 06:49:00,
2013-07-01 01:52:00,67.3,64.6,29.58,NW,317,0.0,0.0,91,0.00,,,0.00,Wunderground v.1.15,2013-07-01 06:52:00,
2013-07-01 01:54:00,67.2,64.5,29.58,NW,317,0.0,0.0,91,0.00,,,0.00,Wunderground v.1.15,2013-07-01 06:54:00,
2013-07-01 01:57:00,67.1,64.4,29.58,NW,317,0.0,0.0,91,0.00,,,0.00,Wunderground v.1.15,2013-07-01 06:57:00,
2013-07-01 01:59:00,67.0,64.3,29.58,NW,317,0.0,0.0,91,0.00,,,0.00,Wunderground v.1.15,2013-07-01 06:59:00,
2013-07-01 02:01:00,67.0,64.3,29.58,NW,317,0.0,0.0,91,0.00,,,0.00,Wunderground v.1.15,2013-07-01 07:01:00,
2013-07-01 02:04:00,66.9,64.5,29.58,NW,317,0.0,0.0,92,0.00,,,0.00,Wunderground v.1.15,2013-07-01 07:04:00,
2013-07-01 02:06:00,66.9,64.5,29.58,NW,317,0.0,0.0,92,0.00,,,0.00,Wunderground v.1.15,2013-07-01 07:06:00,
2013-07-01 02:07:00,66.8,64.4,29.58,NW,317,0.0,0.0,92,0.00,,,0.00,Wunderground v.1.15,2013-07-01 07:07:00,
2013-07-01 02:09:00,66.8,64.4,29.58,NW,317,0.0,0.0,92,0.00,,,0.00,Wunderground v.1.15,2013-07-01 07:09:00,
2013-07-01 02:11:00,66.7,64.3,29.58,NW,317,0.0,0.0,92,0.00,,,0.00,Wunderground v.1.15,2013-07-01 07:11:00,
2013-07-01 02:13:00,66.7,64.3,29.58,NW,317,0.0,0.0,92,0.00,,,0.00,Wunderground v.1.15,2013-07-01 07:13:00,
2013-07-01 02:15:00,66.7,64.6,29.58,NW,317,0.0,0.0,93,0.00,,,0.00,Wunderground v.1.15,2013-07-01 07:15:00,
2013-07-01 02:16:00,66.7,64.6,29.58,NW,317,0.0,0.0,93,0.00,,,0.00,Wunderground v.1.15,2013-07-01 07:16:00,
2013-07-01 02:17:00,66.7,64.6,29.58,NW,317,0.0,0.0,93,0.00,,,0.00,Wunderground v.1.15,2013-07-01 07:17:00,
2013-07-01 02:19:00,66.6,64.5,29.58,NW,317,0.0,0.0,93,0.00,,,0.00,Wunderground v.1.15,2013-07-01 07:19:00,
2013-07-01 02:20:00,66.6,64.5,29.58,NW,317,0.0,0.0,93,0.00,,,0.00,Wunderground v.1.15,2013-07-01 07:20:00,
2013-07-01 02:22:00,66.6,64.5,29.57,NW,317,0.0,0.0,93,0.00,,,0.00,Wunderground v.1.15,2013-07-01 07:22:00,
2013-07-01 02:24:00,66.6,64.5,29.58,NW,317,0.0,0.0,93,0.00,,,0.00,Wunderground v.1.15,2013-07-01 07:24:00,
2013-07-01 02:25:00,66.6,64.5,29.58,NW,317,0.0,0.0,93,0.00,,,0.00,Wunderground v.1.15,2013-07-01 07:25:00,
2013-07-01 02:27:00,66.6,64.5,29.58,NW,317,0.0,0.0,93,0.00,,,0.00,Wunderground v.1.15,2013-07-01 07:27:00,
2013-07-01 02:30:00,66.6,64.5,29.58,NW,317,0.0,0.0,93,0.00,,,0.00,Wunderground v.1.15,2013-07-01 07:30:00,
2013-07-01 02:31:00,66.5,64.4,29.58,NW,317,0.0,0.0,93,0.00,,,0.00,Wunderground v.1.15,2013-07-01 07:31:00,
2013-07-01 02:32:00,66.6,64.5,29.58,NW,317,0.0,0.0,93,0.00,,,0.00,Wunderground v.1.15,2013-07-01 07:32:00,
2013-07-01 02:33:00,66.6,64.5,29.58,NW,317,0.0,0.0,93,0.00,,,0.00,Wunderground v.1.15,2013-07-01 07:33:00,
2013-07-01 02:35:00,66.6,64.5,29.58,NW,317,0.0,0.0,93,0.00,,,0.00,Wunderground v.1.15,2013-07-01 07:35:00,
2013-07-01 02:36:00,66.6,64.5,29.57,NW,317,0.0,0.0,93,0.00,,,0.00,Wunderground v.1.15,2013-07-01 07:36:00,
2013-07-01 02:38:00,66.6,64.5,29.57,NW,317,0.0,0.0,93,0.00,,,0.00,Wunderground v.1.15,2013-07-01 07:38:00,
2013-07-01 02:39:00,66.6,64.5,29.58,NW,317,0.0,0.0,93,0.00,,,0.00,Wunderground v.1.15,2013-07-01 07:39:00,
2013-07-01 02:40:00,66.6,64.5,29.57,NW,317,0.0,0.0,93,0.00,,,0.00,Wunderground v.1.15,2013-07-01 07:40:00,
2013-07-01 02:41:00,66.6,64.5,29.58,NW,317,0.0,0.0,93,0.00,,,0.00,Wunderground v.1.15,2013-07-01 07:41:00,
2013-07-01 02:43:00,66.6,64.5,29.58,NW,317,0.0,0.0,93,0.00,,,0.00,Wunderground v.1.15,2013-07-01 07:43:00,
2013-07-01 02:44:00,66.6,64.5,29.58,NW,317,0.0,0.0,93,0.00,,,0.00,Wunderground v.1.15,2013-07-01 07:44:00,
2013-07-01 02:46:00,66.6,64.5,29.58,NW,317,0.0,0.0,93,0.00,,,0.00,Wunderground v.1.15,2013-07-01 07:46:00,
2013-07-01 02:48:00,66.6,64.5,29.58,NW,317,0.0,0.0,93,0.00,,,0.00,Wunderground v.1.15,2013-07-01 07:48:00,
2013-07-01 02:49:00,66.6,64.5,29.58,NW,317,0.0,0.0,93,0.00,,,0.00,Wunderground v.1.15,2013-07-01 07:49:00,
2013-07-01 02:50:00,66.6,64.5,29.58,NW,317,0.0,0.0,93,0.00,,,0.00,Wunderground v.1.15,2013-07-01 07:50:00,
2013-07-01 02:51:00,66.6,64.5,29.58,NW,317,0.0,0.0,93,0.00,,,0.00,Wunderground v.1.15,2013-07-01 07:51:00,
2013-07-01 02:53:00,66.7,64.6,29.58,NW,317,0.0,0.0,93,0.00,,,0.00,Wunderground v.1.15,2013-07-01 07:53:00,
2013-07-01 02:55:00,66.7,64.6,29.58,NW,317,0.0,0.0,93,0.00,,,0.00,Wunderground v.1.15,2013-07-01 07:55:00,
2013-07-01 02:57:00,66.7,64.6,29.58,NW,317,0.0,0.0,93,0.00,,,0.00,Wunderground v.1.15,2013-07-01 07:57:00,
2013-07-01 02:58:00,66.7,64.6,29.58,NW,317,0.0,0.0,93,0.00,,,0.00,Wunderground v.1.15,2013-07-01 07:58:00,
2013-07-01 03:00:00,66.7,64.6,29.58,NW,317,0.0,0.0,93,0.00,,,0.00,Wunderground v.1.15,2013-07-01 08:00:00,
2013-07-01 03:02:00,66.7,64.6,29.58,NW,317,0.0,0.0,93,0.00,,,0.00,Wunderground v.1.15,2013-07-01 08:02:00,
2013-07-01 03:03:00,66.7,64.6,29.58,NW,317,0.0,0.0,93,0.00,,,0.00,Wunderground v.1.15,2013-07-01 08:03:00,
2013-07-01 03:05:00,66.8,65.0,29.58,NW,317,0.0,0.0,94,0.00,,,0.00,Wunderground v.1.15,2013-07-01 08:05:00,
2013-07-01 03:06:00,66.8,65.0,29.58,NW,317,0.0,0.0,94,0.00,,,0.00,Wunderground v.1.15,2013-07-01 08:06:00,
2013-07-01 03:07:00,66.8,64.7,29.58,NW,317,0.0,0.0,93,0.00,,,0.00,Wunderground v.1.15,2013-07-01 08:07:00,
2013-07-01 03:08:00,66.8,65.0,29.58,NW,317,0.0,0.0,94,0.00,,,0.00,Wunderground v.1.15,2013-07-01 08:08:00,
2013-07-01 03:11:00,66.8,65.0,29.58,NW,317,0.0,0.0,94,0.00,,,0.00,Wunderground v.1.15,2013-07-01 08:11:00,
2013-07-01 03:13:00,66.9,65.1,29.58,NW,317,0.0,0.0,94,0.00,,,0.00,Wunderground v.1.15,2013-07-01 08:13:00,
2013-07-01 03:14:00,66.9,65.1,29.58,NNW,343,0.0,0.0,94,0.00,,,0.00,Wunderground v.1.15,2013-07-01 08:14:00,
2013-07-01 03:16:00,66.9,65.1,29.58,NNW,348,0.0,0.0,94,0.00,,,0.00,Wunderground v.1.15,2013-07-01 08:16:00,
2013-07-01 03:18:00,66.9,64.8,29.58,North,349,0.0,0.0,93,0.00,,,0.00,Wunderground v.1.15,2013-07-01 08:18:00,
2013-07-01 03:19:00,66.9,64.8,29.58,North,349,0.0,0.0,93,0.00,,,0.00,Wunderground v.1.15,2013-07-01 08:19:00,
2013-07-01 03:21:00,67.0,64.9,29.58,North,349,0.0,0.0,93,0.00,,,0.00,Wunderground v.1.15,2013-07-01 08:21:00,
2013-07-01 03:23:00,67.0,64.9,29.58,North,350,0.0,0.0,93,0.00,,,0.00,Wunderground v.1.15,2013-07-01 08:23:00,
2013-07-01 03:25:00,67.0,64.9,29.58,North,350,0.0,0.0,93,0.00,,,0.00,Wunderground v.1.15,2013-07-01 08:25:00,
2013-07-01 03:26:00,67.0,64.9,29.58,North,351,0.0,0.0,93,0.00,,,0.00,Wunderground v.1.15,2013-07-01 08:26:00,
2013-07-01 03:27:00,67.0,64.9,29.58,North,351,0.0,0.0,93,0.00,,,0.00,Wunderground v.1.15,2013-07-01 08:27:00,
2013-07-01 03:28:00,67.0,64.9,29.58,North,351,0.0,0.0,93,0.00,,,0.00,Wunderground v.1.15,2013-07-01 08:28:00,
2013-07-01 03:30:00,67.0,64.9,29.58,North,350,0.0,0.0,93,0.00,,,0.00,Wunderground v.1.15,2013-07-01 08:30:00,
2013-07-01 03:31:00,67.0,64.9,29.58,North,350,0.0,0.0,93,0.00,,,0.00,Wunderground v.1.15,2013-07-01 08:31:00,
2013-07-01 03:33:00,67.0,64.9,29.58,North,351,0.0,0.0,93,0.00,,,0.00,Wunderground v.1.15,2013-07-01 08:33:00,
2013-07-01 03:34:00,67.0,64.9,29.58,North,350,0.0,0.0,93,0.00,,,0.00,Wunderground v.1.15,2013-07-01 08:34:00,
2013-07-01 03:36:00,67.0,64.9,29.58,North,351,0.0,0.0,93,0.00,,,0.00,Wunderground v.1.15,2013-07-01 08:36:00,
2013-07-01 03:38:00,67.0,64.9,29.58,North,351,0.0,0.0,93,0.00,,,0.00,Wunderground v.1.15,2013-07-01 08:38:00,
2013-07-01 03:39:00,66.9,64.8,29.58,North,351,0.0,0.0,93,0.00,,,0.00,Wunderground v.1.15,2013-07-01 08:39:00,
2013-07-01 03:40:00,66.9,64.8,29.58,North,351,0.0,0.0,93,0.00,,,0.00,Wunderground v.1.15,2013-07-01 08:40:00,
2013-07-01 03:41:00,66.9,64.8,29.58,North,351,0.0,0.0,93,0.00,,,0.00,Wunderground v.1.15,2013-07-01 08:41:00,
2013-07-01 03:43:00,66.9,64.8,29.58,North,360,0.0,0.0,93,0.00,,,0.00,Wunderground v.1.15,2013-07-01 08:43:00,
2013-07-01 03:44:00,66.9,64.8,29.58,North,360,0.0,0.0,93,0.00,,,0.00,Wunderground v.1.15,2013-07-01 08:44:00,
2013-07-01 03:45:00,66.9,64.8,29.58,North,360,0.0,0.0,93,0.00,,,0.00,Wunderground v.1.15,2013-07-01 08:45:00,
2013-07-01 03:47:00,66.9,64.8,29.58,North,360,0.0,0.0,93,0.00,,,0.00,Wunderground v.1.15,2013-07-01 08:47:00,
2013-07-01 03:48:00,66.9,64.8,29.58,North,360,0.0,0.0,93,0.00,,,0.00,Wunderground v.1.15,2013-07-01 08:48:00,
2013-07-01 03:49:00,66.9,64.8,29.58,North,360,0.0,0.0,93,0.00,,,0.00,Wunderground v.1.15,2013-07-01 08:49:00,
2013-07-01 03:50:00,66.9,64.8,29.58,North,360,0.0,0.0,93,0.00,,,0.00,Wunderground v.1.15,2013-07-01 08:50:00,
2013-07-01 03:51:00,66.8,64.7,29.58,North,360,0.0,0.0,93,0.00,,,0.00,Wunderground v.1.15,2013-07-01 08:51:00,
2013-07-01 03:53:00,66.8,64.7,29.58,North,360,0.0,0.0,93,0.00,,,0.00,Wunderground v.1.15,2013-07-01 08:53:00,
2013-07-01 03:54:00,66.8,64.7,29.58,North,360,0.0,0.0,93,0.00,,,0.00,Wunderground v.1.15,2013-07-01 08:54:00,
2013-07-01 03:55:00,66.8,64.7,29.58,North,360,0.0,0.0,93,0.00,,,0.00,Wunderground v.1.15,2013-07-01 08:55:00,
2013-07-01 03:57:00,66.7,64.6,29.58,North,360,0.0,0.0,93,0.00,,,0.00,Wunderground v.1.15,2013-07-01 08:57:00,
2013-07-01 03:58:00,66.7,64.6,29.58,North,360,0.0,0.0,93,0.00,,,0.00,Wunderground v.1.15,2013-07-01 08:58:00,
2013-07-01 04:00:00,66.7,64.6,29.58,North,360,0.0,0.0,93,0.00,,,0.00,Wunderground v.1.15,2013-07-01 09:00:00,
2013-07-01 04:02:00,66.7,64.6,29.59,North,360,0.0,0.0,93,0.00,,,0.00,Wunderground v.1.15,2013-07-01 09:02:00,
2013-07-01 04:04:00,66.6,64.5,29.58,North,360,0.0,0.0,93,0.00,,,0.00,Wunderground v.1.15,2013-07-01 09:04:00,
2013-07-01 04:05:00,66.6,64.5,29.58,North,360,0.0,0.0,93,0.00,,,0.00,Wunderground v.1.15,2013-07-01 09:05:00,
2013-07-01 04:07:00,66.6,64.5,29.59,North,360,0.0,0.0,93,0.00,,,0.00,Wunderground v.1.15,2013-07-01 09:07:00,
2013-07-01 04:08:00,66.6,64.5,29.59,North,360,0.0,0.0,93,0.00,,,0.00,Wunderground v.1.15,2013-07-01 09:08:00,
2013-07-01 04:10:00,66.6,64.5,29.59,North,360,0.0,0.0,93,0.00,,,0.00,Wunderground v.1.15,2013-07-01 09:10:00,
2013-07-01 04:11:00,66.6,64.5,29.59,North,360,0.0,0.0,93,0.00,,,0.00,Wunderground v.1.15,2013-07-01 09:11:00,
2013-07-01 04:13:00,66.5,64.4,29.59,North,360,0.0,0.0,93,0.00,,,0.00,Wunderground v.1.15,2013-07-01 09:13:00,
2013-07-01 04:16:00,66.5,64.4,29.59,North,360,0.0,0.0,93,0.00,,,0.00,Wunderground v.1.15,2013-07-01 09:16:00,
2013-07-01 04:17:00,66.5,64.4,29.59,North,360,0.0,0.0,93,0.00,,,0.00,Wunderground v.1.15,2013-07-01 09:17:00,
2013-07-01 04:18:00,66.5,64.4,29.59,North,360,0.0,0.0,93,0.00,,,0.00,Wunderground v.1.15,2013-07-01 09:18:00,
2013-07-01 04:21:00,66.5,64.4,29.59,North,360,0.0,0.0,93,0.00,,,0.00,Wunderground v.1.15,2013-07-01 09:21:00,
2013-07-01 04:22:00,66.5,64.4,29.59,North,360,0.0,0.0,93,0.00,,,0.00,Wunderground v.1.15,2013-07-01 09:22:00,
2013-07-01 04:23:00,66.5,64.4,29.59,North,360,0.0,0.0,93,0.00,,,0.00,Wunderground v.1.15,2013-07-01 09:23:00,
2013-07-01 04:24:00,66.5,64.4,29.59,North,360,0.0,0.0,93,0.00,,,0.00,Wunderground v.1.15,2013-07-01 09:24:00,
2013-07-01 04:26:00,66.5,64.4,29.59,North,360,0.0,0.0,93,0.00,,,0.00,Wunderground v.1.15,2013-07-01 09:26:00,
2013-07-01 04:27:00,66.4,64.3,29.59,North,360,0.0,0.0,93,0.00,,,0.00,Wunderground v.1.15,2013-07-01 09:27:00,
2013-07-01 04:28:00,66.4,64.3,29.59,North,360,0.0,0.0,93,0.00,,,0.00,Wunderground v.1.15,2013-07-01 09:28:00,
2013-07-01 04:29:00,66.4,64.3,29.59,North,360,0.0,0.0,93,0.00,,,0.00,Wunderground v.1.15,2013-07-01 09:29:00,
2013-07-01 04:32:00,66.4,64.3,29.59,North,360,0.0,0.0,93,0.00,,,0.00,Wunderground v.1.15,2013-07-01 09:32:00,
2013-07-01 04:33:00,66.3,64.2,29.59,North,360,0.0,0.0,93,0.00,,,0.00,Wunderground v.1.15,2013-07-01 09:33:00,
2013-07-01 04:35:00,66.4,64.3,29.59,North,360,0.0,0.0,93,0.00,,,0.00,Wunderground v.1.15,2013-07-01 09:35:00,
2013-07-01 04:37:00,66.3,64.2,29.59,North,360,0.0,0.0,93,0.00,,,0.00,Wunderground v.1.15,2013-07-01 09:37:00,
2013-07-01 04:38:00,66.3,64.2,29.59,North,360,0.0,0.0,93,0.00,,,0.00,Wunderground v.1.15,2013-07-01 09:38:00,
2013-07-01 04:40:00,66.3,64.2,29.59,North,360,0.0,0.0,93,0.00,,,0.00,Wunderground v.1.15,2013-07-01 09:40:00,
2013-07-01 04:42:00,66.3,64.2,29.59,North,360,0.0,0.0,93,0.00,,,0.00,Wunderground v.1.15,2013-07-01 09:42:00,
2013-07-01 04:43:00,66.3,64.2,29.59,North,360,0.0,0.0,93,0.00,,,0.00,Wunderground v.1.15,2013-07-01 09:43:00,
2013-07-01 04:44:00,66.3,64.2,29.59,North,360,0.0,0.0,93,0.00,,,0.00,Wunderground v.1.15,2013-07-01 09:44:00,
2013-07-01 04:45:00,66.3,64.2,29.60,North,360,0.0,0.0,93,0.00,,,0.00,Wunderground v.1.15,2013-07-01 09:45:00,
2013-07-01 04:47:00,66.3,64.5,29.59,North,360,0.0,0.0,94,0.00,,,0.00,Wunderground v.1.15,2013-07-01 09:47:00,
2013-07-01 04:48:00,66.3,64.5,29.59,North,360,0.0,0.0,94,0.00,,,0.00,Wunderground v.1.15,2013-07-01 09:48:00,
2013-07-01 04:49:00,66.3,64.5,29.59,North,360,0.0,0.0,94,0.00,,,0.00,Wunderground v.1.15,2013-07-01 09:49:00,
2013-07-01 04:50:00,66.3,64.5,29.59,North,360,0.0,0.0,94,0.00,,,0.00,Wunderground v.1.15,2013-07-01 09:50:00,
2013-07-01 04:52:00,66.2,64.4,29.59,North,360,0.0,0.0,94,0.00,,,0.00,Wunderground v.1.15,2013-07-01 09:52:00,
2013-07-01 04:54:00,66.3,64.5,29.59,NNE,13,0.0,0.0,94,0.00,,,0.00,Wunderground v.1.15,2013-07-01 09:54:00,
2013-07-01 04:55:00,66.2,64.4,29.59,NNE,13,0.0,0.0,94,0.00,,,0.00,Wunderground v.1.15,2013-07-01 09:55:00,
2013-07-01 04:57:00,66.2,64.4,29.60,NNE,13,0.0,0.0,94,0.00,,,0.00,Wunderground v.1.15,2013-07-01 09:57:00,
2013-07-01 04:59:00,66.3,64.5,29.60,NNE,13,0.0,0.0,94,0.00,,,0.00,Wunderground v.1.15,2013-07-01 09:59:00,
2013-07-01 05:00:00,66.2,64.4,29.60,NNE,13,0.0,0.0,94,0.00,,,0.00,Wunderground v.1.15,2013-07-01 10:00:00,
2013-07-01 05:01:00,66.3,64.5,29.60,NNE,13,0.0,0.0,94,0.00,,,0.00,Wunderground v.1.15,2013-07-01 10:01:00,
2013-07-01 05:03:00,66.3,64.5,29.60,NNE,13,0.0,0.0,94,0.00,,,0.00,Wunderground v.1.15,2013-07-01 10:03:00,
2013-07-01 05:04:00,66.3,64.5,29.60,NNE,13,0.0,0.0,94,0.00,,,0.00,Wunderground v.1.15,2013-07-01 10:04:00,
2013-07-01 05:05:00,66.3,64.5,29.60,NNE,13,0.0,0.0,94,0.00,,,0.00,Wunderground v.1.15,2013-07-01 10:05:00,
2013-07-01 05:06:00,66.3,64.5,29.60,NNE,13,0.0,0.0,94,0.00,,,0.00,Wunderground v.1.15,2013-07-01 10:06:00,
2013-07-01 05:08:00,66.3,64.5,29.60,NNE,13,0.0,0.0,94,0.00,,,0.00,Wunderground v.1.15,2013-07-01 10:08:00,
2013-07-01 05:09:00,66.3,64.5,29.60,NNE,13,0.0,0.0,94,0.00,,,0.00,Wunderground v.1.15,2013-07-01 10:09:00,
2013-07-01 05:10:00,66.3,64.5,29.60,NNE,13,0.0,0.0,94,0.00,,,0.00,Wunderground v.1.15,2013-07-01 10:10:00,
2013-07-01 05:11:00,66.3,64.5,29.60,NNE,13,0.0,0.0,94,0.00,,,0.00,Wunderground v.1.15,2013-07-01 10:11:00,
2013-07-01 05:13:00,66.3,64.5,29.60,NNE,13,0.0,0.0,94,0.00,,,0.00,Wunderground v.1.15,2013-07-01 10:13:00,
2013-07-01 05:14:00,66.4,64.6,29.60,NNE,13,0.0,0.0,94,0.00,,,0.00,Wunderground v.1.15,2013-07-01 10:14:00,
2013-07-01 05:16:00,66.4,64.6,29.60,NNE,13,0.0,0.0,94,0.00,,,0.00,Wunderground v.1.15,2013-07-01 10:16:00,
2013-07-01 05:17:00,66.4,64.6,29.60,NNE,13,0.0,0.0,94,0.00,,,0.00,Wunderground v.1.15,2013-07-01 10:17:00,
2013-07-01 05:18:00,66.4,64.3,29.60,NNE,13,0.0,0.0,93,0.00,,,0.00,Wunderground v.1.15,2013-07-01 10:18:00,
2013-07-01 05:20:00,66.4,64.3,29.60,NNE,13,0.0,0.0,93,0.00,,,0.00,Wunderground v.1.15,2013-07-01 10:20:00,
2013-07-01 05:21:00,66.4,64.3,29.60,NNE,13,0.0,0.0,93,0.00,,,0.00,Wunderground v.1.15,2013-07-01 10:21:00,
2013-07-01 05:22:00,66.4,64.3,29.60,NNE,13,0.0,0.0,93,0.00,,,0.00,Wunderground v.1.15,2013-07-01 10:22:00,
2013-07-01 05:23:00,66.4,64.3,29.60,NNE,13,0.0,0.0,93,0.00,,,0.00,Wunderground v.1.15,2013-07-01 10:23:00,
2013-07-01 05:25:00,66.5,64.4,29.60,NNE,13,0.0,0.0,93,0.00,,,0.00,Wunderground v.1.15,2013-07-01 10:25:00,
2013-07-01 05:27:00,66.5,64.4,29.60,NNE,13,0.0,0.0,93,0.00,,,0.00,Wunderground v.1.15,2013-07-01 10:27:00,
2013-07-01 05:28:00,66.5,64.4,29.60,NNE,13,0.0,0.0,93,0.00,,,0.00,Wunderground v.1.15,2013-07-01 10:28:00,
2013-07-01 05:30:00,66.5,64.4,29.60,NNE,13,0.0,0.0,93,0.00,,,0.00,Wunderground v.1.15,2013-07-01 10:30:00,
2013-07-01 05:32:00,66.6,64.5,29.60,NNE,13,0.0,0.0,93,0.00,,,0.00,Wunderground v.1.15,2013-07-01 10:32:00,
2013-07-01 05:33:00,66.6,64.5,29.60,NNE,13,0.0,0.0,93,0.00,,,0.00,Wunderground v.1.15,2013-07-01 10:33:00,
2013-07-01 05:36:00,66.6,64.5,29.60,NNE,13,0.0,0.0,93,0.00,,,0.00,Wunderground v.1.15,2013-07-01 10:36:00,
2013-07-01 05:37:00,66.6,64.5,29.60,NNE,13,0.0,0.0,93,0.00,,,0.00,Wunderground v.1.15,2013-07-01 10:37:00,
2013-07-01 05:38:00,66.6,64.5,29.60,NNE,13,0.0,0.0,93,0.00,,,0.00,Wunderground v.1.15,2013-07-01 10:38:00,
2013-07-01 05:39:00,66.7,64.6,29.60,NNE,13,0.0,0.0,93,0.00,,,0.00,Wunderground v.1.15,2013-07-01 10:39:00,
2013-07-01 05:42:00,66.7,64.6,29.60,NNE,13,0.0,0.0,93,0.00,,,0.00,Wunderground v.1.15,2013-07-01 10:42:00,
2013-07-01 05:43:00,66.7,64.6,29.60,NNE,13,0.0,0.0,93,0.00,,,0.00,Wunderground v.1.15,2013-07-01 10:43:00,
2013-07-01 05:44:00,66.7,64.6,29.60,NNE,13,0.0,0.0,93,0.00,,,0.00,Wunderground v.1.15,2013-07-01 10:44:00,
2013-07-01 05:45:00,66.7,64.6,29.60,NNE,13,0.0,0.0,93,0.00,,,0.00,Wunderground v.1.15,2013-07-01 10:45:00,
2013-07-01 05:47:00,66.7,64.6,29.61,NNE,13,0.0,0.0,93,0.00,,,0.01,Wunderground v.1.15,2013-07-01 10:47:00,
2013-07-01 05:48:00,66.8,64.7,29.61,NNE,13,0.0,0.0,93,0.00,,,0.01,Wunderground v.1.15,2013-07-01 10:48:00,
2013-07-01 05:49:00,66.8,64.7,29.61,NNE,13,0.0,0.0,93,0.00,,,0.01,Wunderground v.1.15,2013-07-01 10:49:00,
2013-07-01 05:51:00,66.8,64.7,29.61,NNE,13,0.0,0.0,93,0.00,,,0.01,Wunderground v.1.15,2013-07-01 10:51:00,
2013-07-01 05:52:00,66.8,64.7,29.61,NNE,13,0.0,0.0,93,0.00,,,0.01,Wunderground v.1.15,2013-07-01 10:52:00,
2013-07-01 05:53:00,66.8,64.7,29.61,NNE,13,0.0,0.0,93,0.00,,,0.01,Wunderground v.1.15,2013-07-01 10:53:00,
2013-07-01 05:54:00,66.8,64.7,29.61,NNE,13,0.0,0.0,93,0.00,,,0.01,Wunderground v.1.15,2013-07-01 10:54:00,
2013-07-01 05:55:00,66.9,64.8,29.61,NNE,13,0.0,0.0,93,0.00,,,0.01,Wunderground v.1.15,2013-07-01 10:55:00,
2013-07-01 05:56:00,66.9,64.8,29.61,NNE,13,0.0,0.0,93,0.00,,,0.01,Wunderground v.1.15,2013-07-01 10:56:00,
2013-07-01 05:57:00,66.9,64.8,29.61,NNE,13,0.0,0.0,93,0.00,,,0.01,Wunderground v.1.15,2013-07-01 10:57:00,
2013-07-01 05:59:00,66.9,64.8,29.61,NNE,13,0.0,0.0,93,0.00,,,0.01,Wunderground v.1.15,2013-07-01 10:59:00,
2013-07-01 06:00:00,66.9,64.8,29.61,NNE,13,0.0,0.0,93,0.00,,,0.01,Wunderground v.1.15,2013-07-01 11:00:00,
2013-07-01 06:02:00,66.9,64.8,29.61,NNE,13,0.0,0.0,93,0.00,,,0.01,Wunderground v.1.15,2013-07-01 11:02:00,
2013-07-01 06:03:00,66.9,64.8,29.61,NNE,13,0.0,0.0,93,0.00,,,0.01,Wunderground v.1.15,2013-07-01 11:03:00,
2013-07-01 06:04:00,67.0,64.9,29.61,NNE,13,0.0,0.0,93,0.00,,,0.01,Wunderground v.1.15,2013-07-01 11:04:00,
2013-07-01 06:05:00,67.0,64.9,29.61,NNE,13,0.0,0.0,93,0.00,,,0.01,Wunderground v.1.15,2013-07-01 11:05:00,
2013-07-01 06:08:00,67.0,64.9,29.61,NNE,13,0.0,0.0,93,0.00,,,0.01,Wunderground v.1.15,2013-07-01 11:08:00,
2013-07-01 06:09:00,67.0,64.9,29.61,NNE,13,0.0,0.0,93,0.00,,,0.01,Wunderground v.1.15,2013-07-01 11:09:00,
2013-07-01 06:10:00,67.0,64.9,29.61,NNE,13,0.0,0.0,93,0.00,,,0.01,Wunderground v.1.15,2013-07-01 11:10:00,
2013-07-01 06:11:00,67.0,64.9,29.61,NNE,13,0.0,0.0,93,0.00,,,0.01,Wunderground v.1.15,2013-07-01 11:11:00,
2013-07-01 06:14:00,67.0,64.9,29.61,NNE,13,0.0,0.0,93,0.00,,,0.01,Wunderground v.1.15,2013-07-01 11:14:00,
2013-07-01 06:15:00,67.0,64.9,29.61,NNE,13,0.0,0.0,93,0.00,,,0.01,Wunderground v.1.15,2013-07-01 11:15:00,
2013-07-01 06:16:00,67.1,65.0,29.61,NNE,13,0.0,0.0,93,0.00,,,0.01,Wunderground v.1.15,2013-07-01 11:16:00,
2013-07-01 06:19:00,67.0,64.9,29.61,NNE,13,0.0,0.0,93,0.00,,,0.01,Wunderground v.1.15,2013-07-01 11:19:00,
2013-07-01 06:20:00,67.0,64.9,29.61,NNE,13,0.0,0.0,93,0.00,,,0.01,Wunderground v.1.15,2013-07-01 11:20:00,
2013-07-01 06:22:00,67.1,65.0,29.61,NNE,13,0.0,0.0,93,0.00,,,0.01,Wunderground v.1.15,2013-07-01 11:22:00,
2013-07-01 06:24:00,67.0,64.9,29.61,NNE,13,0.0,0.0,93,0.00,,,0.01,Wunderground v.1.15,2013-07-01 11:24:00,
2013-07-01 06:25:00,67.1,65.0,29.61,NNE,13,0.0,0.0,93,0.00,,,0.01,Wunderground v.1.15,2013-07-01 11:25:00,
2013-07-01 06:26:00,67.1,65.0,29.61,NNE,13,0.0,0.0,93,0.00,,,0.01,Wunderground v.1.15,2013-07-01 11:26:00,
2013-07-01 06:27:00,67.0,64.9,29.61,NNE,13,0.0,0.0,93,0.00,,,0.01,Wunderground v.1.15,2013-07-01 11:27:00,
2013-07-01 06:29:00,67.0,65.2,29.61,NNE,13,0.0,0.0,94,0.00,,,0.01,Wunderground v.1.15,2013-07-01 11:29:00,
2013-07-01 06:30:00,67.1,65.3,29.61,NNE,13,0.0,0.0,94,0.00,,,0.01,Wunderground v.1.15,2013-07-01 11:30:00,
2013-07-01 06:31:00,67.1,65.3,29.61,NNE,13,0.0,0.0,94,0.00,,,0.01,Wunderground v.1.15,2013-07-01 11:31:00,
2013-07-01 06:32:00,67.1,65.3,29.61,NNE,13,0.0,0.0,94,0.00,,,0.01,Wunderground v.1.15,2013-07-01 11:32:00,
2013-07-01 06:35:00,67.1,65.3,29.61,NNE,13,0.0,0.0,94,0.00,,,0.01,Wunderground v.1.15,2013-07-01 11:35:00,
2013-07-01 06:36:00,67.1,65.3,29.61,NNE,13,0.0,0.0,94,0.00,,,0.01,Wunderground v.1.15,2013-07-01 11:36:00,
2013-07-01 06:37:00,67.1,65.3,29.61,NNE,13,0.0,0.0,94,0.00,,,0.01,Wunderground v.1.15,2013-07-01 11:37:00,
2013-07-01 06:38:00,67.1,65.3,29.61,NNE,13,0.0,0.0,94,0.00,,,0.01,Wunderground v.1.15,2013-07-01 11:38:00,
2013-07-01 06:40:00,67.1,65.3,29.61,NNE,13,0.0,0.0,94,0.00,,,0.01,Wunderground v.1.15,2013-07-01 11:40:00,
2013-07-01 06:41:00,67.1,65.3,29.61,NNE,13,0.0,0.0,94,0.00,,,0.01,Wunderground v.1.15,2013-07-01 11:41:00,
2013-07-01 06:42:00,67.1,65.3,29.61,NNE,13,0.0,0.0,94,0.00,,,0.01,Wunderground v.1.15,2013-07-01 11:42:00,
2013-07-01 06:43:00,67.1,65.3,29.61,NNE,13,0.0,0.0,94,0.00,,,0.01,Wunderground v.1.15,2013-07-01 11:43:00,
2013-07-01 06:46:00,67.1,65.3,29.61,NNE,13,0.0,0.0,94,0.00,,,0.01,Wunderground v.1.15,2013-07-01 11:46:00,
2013-07-01 06:47:00,67.1,65.3,29.61,NNE,13,0.0,0.0,94,0.00,,,0.01,Wunderground v.1.15,2013-07-01 11:47:00,
2013-07-01 06:48:00,67.1,65.3,29.61,NNE,13,0.0,0.0,94,0.00,,,0.01,Wunderground v.1.15,2013-07-01 11:48:00,
2013-07-01 06:51:00,67.1,65.3,29.61,NNE,13,0.0,0.0,94,0.00,,,0.01,Wunderground v.1.15,2013-07-01 11:51:00,
2013-07-01 06:52:00,67.1,65.3,29.61,NNE,13,0.0,0.0,94,0.00,,,0.01,Wunderground v.1.15,2013-07-01 11:52:00,
2013-07-01 06:53:00,67.1,65.3,29.61,NNE,13,0.0,0.0,94,0.00,,,0.01,Wunderground v.1.15,2013-07-01 11:53:00,
2013-07-01 06:56:00,67.2,65.4,29.61,NNE,13,0.0,0.0,94,0.00,,,0.01,Wunderground v.1.15,2013-07-01 11:56:00,
2013-07-01 06:57:00,67.2,65.4,29.61,NNE,13,0.0,0.0,94,0.00,,,0.01,Wunderground v.1.15,2013-07-01 11:57:00,
2013-07-01 06:58:00,67.2,65.4,29.61,NNE,13,0.0,0.0,94,0.00,,,0.01,Wunderground v.1.15,2013-07-01 11:58:00,
2013-07-01 07:01:00,67.2,65.4,29.61,NNE,13,0.0,0.0,94,0.00,,,0.01,Wunderground v.1.15,2013-07-01 12:01:00,
2013-07-01 07:02:00,67.2,65.4,29.61,NNE,13,0.0,0.0,94,0.00,,,0.01,Wunderground v.1.15,2013-07-01 12:02:00,
2013-07-01 07:03:00,67.2,65.4,29.61,NNE,13,0.0,0.0,94,0.00,,,0.01,Wunderground v.1.15,2013-07-01 12:03:00,
2013-07-01 07:04:00,67.2,65.4,29.61,NNE,13,0.0,0.0,94,0.00,,,0.01,Wunderground v.1.15,2013-07-01 12:04:00,
2013-07-01 07:06:00,67.2,65.4,29.61,NNE,13,0.0,0.0,94,0.00,,,0.01,Wunderground v.1.15,2013-07-01 12:06:00,
2013-07-01 07:07:00,67.2,65.4,29.61,NNE,13,0.0,0.0,94,0.00,,,0.01,Wunderground v.1.15,2013-07-01 12:07:00,
2013-07-01 07:09:00,67.2,65.4,29.61,NNE,13,0.0,0.0,94,0.00,,,0.01,Wunderground v.1.15,2013-07-01 12:09:00,
2013-07-01 07:10:00,67.3,65.5,29.61,NNE,13,0.0,0.0,94,0.00,,,0.01,Wunderground v.1.15,2013-07-01 12:10:00,
2013-07-01 07:11:00,67.3,65.5,29.61,NNE,13,0.0,0.0,94,0.00,,,0.01,Wunderground v.1.15,2013-07-01 12:11:00,
2013-07-01 07:13:00,67.3,65.5,29.61,NNE,13,0.0,0.0,94,0.00,,,0.01,Wunderground v.1.15,2013-07-01 12:13:00,
2013-07-01 07:14:00,67.3,65.5,29.61,NNE,13,0.0,0.0,94,0.00,,,0.01,Wunderground v.1.15,2013-07-01 12:14:00,
2013-07-01 07:15:00,67.3,65.5,29.62,NNE,13,0.0,0.0,94,0.00,,,0.01,Wunderground v.1.15,2013-07-01 12:15:00,
2013-07-01 07:16:00,67.3,65.5,29.62,NNE,13,0.0,0.0,94,0.00,,,0.01,Wunderground v.1.15,2013-07-01 12:16:00,
2013-07-01 07:18:00,67.3,65.5,29.62,NNE,13,0.0,0.0,94,0.00,,,0.01,Wunderground v.1.15,2013-07-01 12:18:00,
2013-07-01 07:19:00,67.3,65.5,29.62,NNE,13,0.0,0.0,94,0.00,,,0.01,Wunderground v.1.15,2013-07-01 12:19:00,
2013-07-01 07:20:00,67.3,65.5,29.62,NNE,13,0.0,0.0,94,0.00,,,0.01,Wunderground v.1.15,2013-07-01 12:20:00,
2013-07-01 07:21:00,67.4,65.6,29.62,NNE,13,0.0,0.0,94,0.00,,,0.01,Wunderground v.1.15,2013-07-01 12:21:00,
2013-07-01 07:24:00,67.4,65.6,29.62,NNE,13,0.0,0.0,94,0.00,,,0.01,Wunderground v.1.15,2013-07-01 12:24:00,
2013-07-01 07:25:00,67.4,65.6,29.62,NNE,13,0.0,0.0,94,0.00,,,0.01,Wunderground v.1.15,2013-07-01 12:25:00,
2013-07-01 07:26:00,67.4,65.6,29.62,NNE,13,0.0,0.0,94,0.00,,,0.01,Wunderground v.1.15,2013-07-01 12:26:00,
2013-07-01 07:27:00,67.4,65.6,29.62,NNE,13,0.0,0.0,94,0.00,,,0.01,Wunderground v.1.15,2013-07-01 12:27:00,
2013-07-01 07:30:00,67.4,65.6,29.62,NNE,13,0.0,0.0,94,0.00,,,0.01,Wunderground v.1.15,2013-07-01 12:30:00,
2013-07-01 07:31:00,67.4,65.6,29.62,NNE,13,0.0,0.0,94,0.00,,,0.01,Wunderground v.1.15,2013-07-01 12:31:00,
2013-07-01 07:32:00,67.4,65.6,29.62,NNE,13,0.0,0.0,94,0.00,,,0.01,Wunderground v.1.15,2013-07-01 12:32:00,
2013-07-01 07:35:00,67.5,65.7,29.62,NNE,13,0.0,0.0,94,0.00,,,0.01,Wunderground v.1.15,2013-07-01 12:35:00,
2013-07-01 07:36:00,67.5,65.7,29.62,NNE,13,0.0,0.0,94,0.00,,,0.01,Wunderground v.1.15,2013-07-01 12:36:00,
2013-07-01 07:37:00,67.5,65.7,29.62,NNE,13,0.0,0.0,94,0.00,,,0.01,Wunderground v.1.15,2013-07-01 12:37:00,
2013-07-01 07:40:00,67.5,65.7,29.62,NNE,13,0.0,0.0,94,0.00,,,0.01,Wunderground v.1.15,2013-07-01 12:40:00,
2013-07-01 07:41:00,67.6,65.8,29.62,NNE,13,0.0,0.0,94,0.00,,,0.01,Wunderground v.1.15,2013-07-01 12:41:00,
2013-07-01 07:42:00,67.6,65.8,29.62,NNE,13,0.0,0.0,94,0.00,,,0.01,Wunderground v.1.15,2013-07-01 12:42:00,
2013-07-01 07:45:00,67.6,65.8,29.63,NNE,13,0.0,0.0,94,0.00,,,0.01,Wunderground v.1.15,2013-07-01 12:45:00,
2013-07-01 07:46:00,67.6,65.8,29.63,NNE,13,0.0,0.0,94,0.00,,,0.01,Wunderground v.1.15,2013-07-01 12:46:00,
2013-07-01 07:47:00,67.6,65.8,29.63,NNE,13,0.0,0.0,94,0.00,,,0.01,Wunderground v.1.15,2013-07-01 12:47:00,
2013-07-01 07:48:00,67.6,65.8,29.63,NNE,13,0.0,0.0,94,0.00,,,0.01,Wunderground v.1.15,2013-07-01 12:48:00,
2013-07-01 07:51:00,67.7,65.9,29.63,NNE,13,0.0,0.0,94,0.00,,,0.01,Wunderground v.1.15,2013-07-01 12:51:00,
2013-07-01 07:52:00,67.7,65.9,29.63,NNE,13,0.0,0.0,94,0.00,,,0.01,Wunderground v.1.15,2013-07-01 12:52:00,
2013-07-01 07:53:00,67.7,65.9,29.63,NNE,13,0.0,0.0,94,0.00,,,0.01,Wunderground v.1.15,2013-07-01 12:53:00,
2013-07-01 07:56:00,67.8,66.0,29.63,NNE,28,0.0,0.0,94,0.00,,,0.01,Wunderground v.1.15,2013-07-01 12:56:00,
2013-07-01 07:57:00,67.8,66.0,29.63,NNE,28,0.0,0.0,94,0.00,,,0.01,Wunderground v.1.15,2013-07-01 12:57:00,
2013-07-01 07:58:00,67.9,66.1,29.63,NNE,17,0.0,0.0,94,0.00,,,0.01,Wunderground v.1.15,2013-07-01 12:58:00,
2013-07-01 08:01:00,67.9,66.1,29.63,NNE,17,0.0,0.0,94,0.00,,,0.01,Wunderground v.1.15,2013-07-01 13:01:00,
2013-07-01 08:02:00,67.9,66.1,29.63,NNE,17,0.0,0.0,94,0.00,,,0.01,Wunderground v.1.15,2013-07-01 13:02:00,
2013-07-01 08:03:00,68.0,66.2,29.63,NNE,17,0.0,0.0,94,0.00,,,0.01,Wunderground v.1.15,2013-07-01 13:03:00,
2013-07-01 08:06:00,68.0,66.5,29.63,NNE,17,0.0,0.0,95,0.00,,,0.01,Wunderground v.1.15,2013-07-01 13:06:00,
2013-07-01 08:07:00,68.1,66.3,29.63,NNE,17,0.0,0.0,94,0.00,,,0.01,Wunderground v.1.15,2013-07-01 13:07:00,
2013-07-01 08:08:00,68.1,66.3,29.63,NNE,17,0.0,0.0,94,0.00,,,0.01,Wunderground v.1.15,2013-07-01 13:08:00,
2013-07-01 08:09:00,68.1,66.3,29.63,NNE,17,0.0,0.0,94,0.00,,,0.01,Wunderground v.1.15,2013-07-01 13:09:00,
2013-07-01 08:11:00,68.2,66.4,29.63,NNE,17,0.0,0.0,94,0.00,,,0.01,Wunderground v.1.15,2013-07-01 13:11:00,
2013-07-01 08:12:00,68.3,66.5,29.63,NNE,17,0.0,0.0,94,0.00,,,0.01,Wunderground v.1.15,2013-07-01 13:12:00,
2013-07-01 08:13:00,68.2,66.4,29.63,NNE,17,0.0,0.0,94,0.00,,,0.01,Wunderground v.1.15,2013-07-01 13:13:00,
2013-07-01 08:14:00,68.3,66.5,29.63,NNE,17,0.0,0.0,94,0.00,,,0.01,Wunderground v.1.15,2013-07-01 13:14:00,
2013-07-01 08:16:00,68.4,66.6,29.63,NNE,17,0.0,0.0,94,0.00,,,0.01,Wunderground v.1.15,2013-07-01 13:16:00,
2013-07-01 08:18:00,68.4,66.6,29.63,NNE,17,0.0,0.0,94,0.00,,,0.01,Wunderground v.1.15,2013-07-01 13:18:00,
2013-07-01 08:19:00,68.5,66.7,29.63,NNE,17,0.0,0.0,94,0.00,,,0.01,Wunderground v.1.15,2013-07-01 13:19:00,
2013-07-01 08:21:00,68.5,66.7,29.64,NNE,17,0.0,0.0,94,0.00,,,0.01,Wunderground v.1.15,2013-07-01 13:21:00,
2013-07-01 08:23:00,68.6,66.8,29.64,NNE,17,0.0,0.0,94,0.00,,,0.01,Wunderground v.1.15,2013-07-01 13:23:00,
2013-07-01 08:24:00,68.6,66.8,29.64,NNE,17,0.0,0.0,94,0.00,,,0.01,Wunderground v.1.15,2013-07-01 13:24:00,
2013-07-01 08:25:00,68.6,66.8,29.64,NNE,17,0.0,0.0,94,0.00,,,0.01,Wunderground v.1.15,2013-07-01 13:25:00,
2013-07-01 08:27:00,68.7,66.9,29.64,NNE,17,0.0,0.0,94,0.00,,,0.01,Wunderground v.1.15,2013-07-01 13:27:00,
2013-07-01 08:28:00,68.8,67.0,29.64,NNE,17,0.0,0.0,94,0.00,,,0.01,Wunderground v.1.15,2013-07-01 13:28:00,
2013-07-01 08:29:00,68.8,67.0,29.64,NNE,17,0.0,0.0,94,0.00,,,0.01,Wunderground v.1.15,2013-07-01 13:29:00,
2013-07-01 08:30:00,68.8,67.0,29.64,NNE,17,0.0,0.0,94,0.00,,,0.01,Wunderground v.1.15,2013-07-01 13:30:00,
2013-07-01 08:31:00,68.8,67.0,29.64,NNE,17,0.0,0.0,94,0.00,,,0.01,Wunderground v.1.15,2013-07-01 13:31:00,
2013-07-01 08:32:00,68.8,67.0,29.64,NNE,17,0.0,0.0,94,0.00,,,0.01,Wunderground v.1.15,2013-07-01 13:32:00,
2013-07-01 08:33:00,68.8,67.0,29.64,NNE,17,0.0,0.0,94,0.00,,,0.01,Wunderground v.1.15,2013-07-01 13:33:00,
2013-07-01 08:35:00,68.8,66.7,29.64,NNE,17,0.0,0.0,93,0.00,,,0.01,Wunderground v.1.15,2013-07-01 13:35:00,
2013-07-01 08:36:00,68.8,67.0,29.64,NNE,17,0.0,0.0,94,0.00,,,0.01,Wunderground v.1.15,2013-07-01 13:36:00,
2013-07-01 08:38:00,68.9,67.1,29.64,NNE,17,0.0,0.0,94,0.00,,,0.01,Wunderground v.1.15,2013-07-01 13:38:00,
2013-07-01 08:39:00,69.1,67.3,29.64,NNE,17,0.0,0.0,94,0.00,,,0.01,Wunderground v.1.15,2013-07-01 13:39:00,
2013-07-01 08:40:00,69.1,67.3,29.64,NNE,17,0.0,0.0,94,0.00,,,0.01,Wunderground v.1.15,2013-07-01 13:40:00,
2013-07-01 08:42:00,69.2,67.4,29.64,NNE,17,0.0,1.0,94,0.00,,,0.01,Wunderground v.1.15,2013-07-01 13:42:00,
2013-07-01 08:44:00,69.4,67.6,29.64,NNE,17,3.0,3.0,94,0.00,,,0.01,Wunderground v.1.15,2013-07-01 13:44:00,
2013-07-01 08:45:00,69.4,67.3,29.64,NNE,32,2.0,3.0,93,0.00,,,0.01,Wunderground v.1.15,2013-07-01 13:45:00,
2013-07-01 08:48:00,69.3,66.9,29.64,NE,40,0.0,3.0,92,0.00,,,0.01,Wunderground v.1.15,2013-07-01 13:48:00,
2013-07-01 08:49:00,69.3,66.9,29.64,NE,40,0.0,3.0,92,0.00,,,0.01,Wunderground v.1.15,2013-07-01 13:49:00,
2013-07-01 08:50:00,69.3,66.9,29.64,NE,40,0.0,3.0,92,0.00,,,0.01,Wunderground v.1.15,2013-07-01 13:50:00,
2013-07-01 08:51:00,69.3,66.9,29.64,NE,40,0.0,3.0,92,0.00,,,0.01,Wunderground v.1.15,2013-07-01 13:51:00,
2013-07-01 08:53:00,69.3,66.9,29.64,NE,40,0.0,3.0,92,0.00,,,0.01,Wunderground v.1.15,2013-07-01 13:53:00,
2013-07-01 08:55:00,69.3,66.6,29.64,NE,40,0.0,3.0,91,0.00,,,0.01,Wunderground v.1.15,2013-07-01 13:55:00,
2013-07-01 08:56:00,69.4,66.7,29.64,NE,40,0.0,3.0,91,0.00,,,0.01,Wunderground v.1.15,2013-07-01 13:56:00,
2013-07-01 08:58:00,69.4,67.0,29.64,NE,40,0.0,0.0,92,0.00,,,0.01,Wunderground v.1.15,2013-07-01 13:58:00,
2013-07-01 09:01:00,69.6,66.9,29.64,NE,40,0.0,0.0,91,0.00,,,0.01,Wunderground v.1.15,2013-07-01 14:01:00,
2013-07-01 09:03:00,69.6,66.9,29.64,NE,40,0.0,0.0,91,0.00,,,0.01,Wunderground v.1.15,2013-07-01 14:03:00,
2013-07-01 09:07:00,69.8,67.1,29.64,NE,40,0.0,0.0,91,0.00,,,0.01,Wunderground v.1.15,2013-07-01 14:07:00,
2013-07-01 09:08:00,69.9,67.2,29.64,NW,312,0.0,1.0,91,0.00,,,0.01,Wunderground v.1.15,2013-07-01 14:08:00,
2013-07-01 09:09:00,69.9,66.8,29.64,NW,317,3.0,3.0,90,0.00,,,0.01,Wunderground v.1.15,2013-07-01 14:09:00,
2013-07-01 09:12:00,69.9,66.5,29.64,NNW,348,0.0,5.0,89,0.00,,,0.01,Wunderground v.1.15,2013-07-01 14:12:00,
2013-07-01 09:13:00,69.9,66.5,29.64,NNW,348,0.0,5.0,89,0.00,,,0.01,Wunderground v.1.15,2013-07-01 14:13:00,
2013-07-01 09:15:00,69.9,66.5,29.64,NNW,348,0.0,5.0,89,0.00,,,0.01,Wunderground v.1.15,2013-07-01 14:15:00,
2013-07-01 09:17:00,69.9,66.5,29.65,NNW,348,0.0,0.0,89,0.00,,,0.01,Wunderground v.1.15,2013-07-01 14:17:00,
2013-07-01 09:18:00,69.9,66.5,29.65,NNW,348,0.0,0.0,89,0.00,,,0.01,Wunderground v.1.15,2013-07-01 14:18:00,
2013-07-01 09:19:00,69.9,66.5,29.65,NNW,348,0.0,0.0,89,0.00,,,0.01,Wunderground v.1.15,2013-07-01 14:19:00,
2013-07-01 09:20:00,69.9,66.8,29.65,NNW,348,0.0,0.0,90,0.00,,,0.01,Wunderground v.1.15,2013-07-01 14:20:00,
2013-07-01 09:22:00,69.9,66.5,29.65,NW,324,2.0,3.0,89,0.00,,,0.01,Wunderground v.1.15,2013-07-01 14:22:00,
2013-07-01 09:24:00,69.9,66.5,29.65,North,355,0.0,3.0,89,0.00,,,0.01,Wunderground v.1.15,2013-07-01 14:24:00,
2013-07-01 09:26:00,70.0,66.6,29.65,North,355,0.0,3.0,89,0.00,,,0.01,Wunderground v.1.15,2013-07-01 14:26:00,
2013-07-01 09:27:00,70.0,66.9,29.65,North,355,0.0,0.0,90,0.00,,,0.01,Wunderground v.1.15,2013-07-01 14:27:00,
2013-07-01 09:29:00,70.1,67.0,29.65,WNW,298,0.0,1.0,90,0.00,,,0.01,Wunderground v.1.15,2013-07-01 14:29:00,
2013-07-01 09:30:00,70.2,67.1,29.64,WNW,298,0.0,1.0,90,0.00,,,0.01,Wunderground v.1.15,2013-07-01 14:30:00,
2013-07-01 09:31:00,70.2,67.1,29.65,WNW,299,0.0,1.0,90,0.00,,,0.01,Wunderground v.1.15,2013-07-01 14:31:00,
2013-07-01 09:32:00,70.3,67.2,29.65,NW,314,0.0,1.0,90,0.00,,,0.01,Wunderground v.1.15,2013-07-01 14:32:00,
2013-07-01 09:34:00,70.3,66.6,29.64,North,355,0.0,5.0,88,0.00,,,0.01,Wunderground v.1.15,2013-07-01 14:34:00,
2013-07-01 09:36:00,70.4,67.0,29.64,North,355,0.0,5.0,89,0.00,,,0.01,Wunderground v.1.15,2013-07-01 14:36:00,
2013-07-01 09:37:00,70.4,67.0,29.64,North,355,0.0,0.0,89,0.00,,,0.01,Wunderground v.1.15,2013-07-01 14:37:00,
2013-07-01 09:39:00,70.5,66.8,29.64,NNW,338,0.0,1.0,88,0.00,,,0.01,Wunderground v.1.15,2013-07-01 14:39:00,
2013-07-01 09:40:00,70.5,66.8,29.64,NNW,337,0.0,1.0,88,0.00,,,0.01,Wunderground v.1.15,2013-07-01 14:40:00,
2013-07-01 09:41:00,70.6,66.9,29.64,NNW,338,0.0,1.0,88,0.00,,,0.01,Wunderground v.1.15,2013-07-01 14:41:00,
2013-07-01 09:42:00,70.7,67.3,29.64,NNW,338,0.0,1.0,89,0.00,,,0.01,Wunderground v.1.15,2013-07-01 14:42:00,
2013-07-01 09:44:00,70.8,67.4,29.64,NNW,338,0.0,1.0,89,0.00,,,0.01,Wunderground v.1.15,2013-07-01 14:44:00,
2013-07-01 09:45:00,70.8,67.4,29.64,NNW,338,0.0,1.0,89,0.00,,,0.01,Wunderground v.1.15,2013-07-01 14:45:00,
2013-07-01 09:46:00,70.9,67.5,29.64,NNW,338,0.0,0.0,89,0.00,,,0.01,Wunderground v.1.15,2013-07-01 14:46:00,
2013-07-01 09:48:00,71.0,67.6,29.64,NNW,338,0.0,0.0,89,0.00,,,0.01,Wunderground v.1.15,2013-07-01 14:48:00,
2013-07-01 09:49:00,71.1,67.7,29.64,NNW,338,0.0,0.0,89,0.00,,,0.01,Wunderground v.1.15,2013-07-01 14:49:00,
2013-07-01 09:50:00,71.1,67.7,29.64,NNW,337,0.0,0.0,89,0.00,,,0.01,Wunderground v.1.15,2013-07-01 14:50:00,
2013-07-01 09:51:00,71.1,67.7,29.64,NNW,338,0.0,0.0,89,0.00,,,0.01,Wunderground v.1.15,2013-07-01 14:51:00,
2013-07-01 09:52:00,71.2,67.8,29.64,NNW,338,0.0,0.0,89,0.00,,,0.01,Wunderground v.1.15,2013-07-01 14:52:00,
2013-07-01 09:54:00,71.2,67.8,29.64,NNW,338,0.0,0.0,89,0.00,,,0.01,Wunderground v.1.15,2013-07-01 14:54:00,
2013-07-01 09:55:00,71.3,67.9,29.64,NNW,337,0.0,0.0,89,0.00,,,0.01,Wunderground v.1.15,2013-07-01 14:55:00,
2013-07-01 09:57:00,71.3,67.9,29.64,NNW,337,0.0,0.0,89,0.00,,,0.01,Wunderground v.1.15,2013-07-01 14:57:00,
2013-07-01 09:59:00,71.3,67.6,29.64,NNW,337,0.0,0.0,88,0.00,,,0.01,Wunderground v.1.15,2013-07-01 14:59:00,
2013-07-01 10:01:00,71.3,67.6,29.64,NNW,338,0.0,0.0,88,0.00,,,0.01,Wunderground v.1.15,2013-07-01 15:01:00,
2013-07-01 10:02:00,71.4,67.7,29.64,NNW,337,0.0,0.0,88,0.00,,,0.01,Wunderground v.1.15,2013-07-01 15:02:00,
2013-07-01 10:03:00,71.4,67.7,29.64,NNW,337,0.0,0.0,88,0.00,,,0.01,Wunderground v.1.15,2013-07-01 15:03:00,
2013-07-01 10:06:00,71.5,67.8,29.64,NNW,342,0.0,0.0,88,0.00,,,0.01,Wunderground v.1.15,2013-07-01 15:06:00,
2013-07-01 10:07:00,71.6,67.9,29.64,NNW,342,0.0,0.0,88,0.00,,,0.01,Wunderground v.1.15,2013-07-01 15:07:00,
2013-07-01 10:09:00,71.7,68.0,29.64,NNW,342,0.0,0.0,88,0.00,,,0.01,Wunderground v.1.15,2013-07-01 15:09:00,
2013-07-01 10:11:00,71.8,68.1,29.64,NNW,342,0.0,0.0,88,0.00,,,0.01,Wunderground v.1.15,2013-07-01 15:11:00,
2013-07-01 10:12:00,71.9,68.2,29.64,NNW,348,0.0,0.0,88,0.00,,,0.01,Wunderground v.1.15,2013-07-01 15:12:00,
2013-07-01 10:14:00,72.1,68.7,29.64,North,349,0.0,0.0,89,0.00,,,0.01,Wunderground v.1.15,2013-07-01 15:14:00,
2013-07-01 10:16:00,72.2,67.8,29.64,NE,53,1.0,2.0,86,0.00,,,0.01,Wunderground v.1.15,2013-07-01 15:16:00,
2013-07-01 10:17:00,72.3,67.9,29.64,NNW,339,0.0,2.0,86,0.00,,,0.01,Wunderground v.1.15,2013-07-01 15:17:00,
2013-07-01 10:18:00,72.3,67.5,29.64,NNW,339,0.0,2.0,85,0.00,,,0.01,Wunderground v.1.15,2013-07-01 15:18:00,
2013-07-01 10:19:00,72.5,68.4,29.64,NNW,339,0.0,2.0,87,0.00,,,0.01,Wunderground v.1.15,2013-07-01 15:19:00,
2013-07-01 10:21:00,72.7,68.6,29.64,NNW,331,0.0,2.0,87,0.00,,,0.01,Wunderground v.1.15,2013-07-01 15:21:00,
2013-07-01 10:22:00,72.8,68.7,29.64,NNW,331,0.0,2.0,87,0.00,,,0.01,Wunderground v.1.15,2013-07-01 15:22:00,
2013-07-01 10:23:00,72.8,68.4,29.64,ESE,119,0.0,2.0,86,0.00,,,0.01,Wunderground v.1.15,2013-07-01 15:23:00,
2013-07-01 10:24:00,72.9,68.5,29.65,SE,124,0.0,2.0,86,0.00,,,0.01,Wunderground v.1.15,2013-07-01 15:24:00,
2013-07-01 10:25:00,73.0,68.2,29.64,ESE,123,0.0,2.0,85,0.00,,,0.01,Wunderground v.1.15,2013-07-01 15:25:00,
2013-07-01 10:27:00,73.1,68.3,29.65,ESE,123,0.0,0.0,85,0.00,,,0.01,Wunderground v.1.15,2013-07-01 15:27:00,
2013-07-01 10:28:00,73.1,68.3,29.65,SE,124,0.0,0.0,85,0.00,,,0.01,Wunderground v.1.15,2013-07-01 15:28:00,
2013-07-01 10:29:00,73.2,68.4,29.65,SE,124,0.0,0.0,85,0.00,,,0.01,Wunderground v.1.15,2013-07-01 15:29:00,
2013-07-01 10:30:00,73.3,68.9,29.65,SE,124,0.0,0.0,86,0.00,,,0.01,Wunderground v.1.15,2013-07-01 15:30:00,
2013-07-01 10:32:00,73.3,68.2,29.65,SW,222,0.0,3.0,84,0.00,,,0.01,Wunderground v.1.15,2013-07-01 15:32:00,
2013-07-01 10:33:00,73.3,67.8,29.65,SW,222,0.0,3.0,83,0.00,,,0.01,Wunderground v.1.15,2013-07-01 15:33:00,
2013-07-01 10:34:00,73.3,67.8,29.65,SW,226,0.0,3.0,83,0.00,,,0.01,Wunderground v.1.15,2013-07-01 15:34:00,
2013-07-01 10:35:00,73.3,67.8,29.65,SW,226,0.0,3.0,83,0.00,,,0.01,Wunderground v.1.15,2013-07-01 15:35:00,
2013-07-01 10:36:00,73.3,67.8,29.65,ENE,62,0.0,1.0,83,0.00,,,0.01,Wunderground v.1.15,2013-07-01 15:36:00,
2013-07-01 10:38:00,73.4,68.3,29.65,NNW,344,0.0,4.0,84,0.00,,,0.01,Wunderground v.1.15,2013-07-01 15:38:00,
2013-07-01 10:40:00,73.6,68.5,29.65,NNW,344,0.0,4.0,84,0.00,,,0.01,Wunderground v.1.15,2013-07-01 15:40:00,
2013-07-01 10:42:00,73.7,68.6,29.65,NNW,344,0.0,4.0,84,0.00,,,0.01,Wunderground v.1.15,2013-07-01 15:42:00,
2013-07-01 10:43:00,73.8,68.0,29.65,NNE,26,5.0,5.0,82,0.00,,,0.01,Wunderground v.1.15,2013-07-01 15:43:00,
2013-07-01 10:44:00,73.8,67.2,29.64,NW,317,4.0,5.0,80,0.00,,,0.01,Wunderground v.1.15,2013-07-01 15:44:00,
2013-07-01 10:45:00,73.8,67.2,29.64,NNE,18,0.0,5.0,80,0.00,,,0.01,Wunderground v.1.15,2013-07-01 15:45:00,
2013-07-01 10:47:00,73.9,68.4,29.64,NNE,19,0.0,0.0,83,0.00,,,0.01,Wunderground v.1.15,2013-07-01 15:47:00,
2013-07-01 10:49:00,73.9,68.1,29.65,NNE,19,0.0,0.0,82,0.00,,,0.01,Wunderground v.1.15,2013-07-01 15:49:00,
2013-07-01 10:50:00,73.9,68.1,29.65,NNE,19,0.0,0.0,82,0.00,,,0.01,Wunderground v.1.15,2013-07-01 15:50:00,
2013-07-01 10:52:00,74.0,68.2,29.65,NNE,19,0.0,0.0,82,0.00,,,0.01,Wunderground v.1.15,2013-07-01 15:52:00,
2013-07-01 10:54:00,74.1,68.3,29.65,NNE,18,0.0,0.0,82,0.00,,,0.01,Wunderground v.1.15,2013-07-01 15:54:00,
2013-07-01 10:56:00,74.1,67.5,29.65,NNE,17,0.0,0.0,80,0.00,,,0.01,Wunderground v.1.15,2013-07-01 15:56:00,
2013-07-01 10:58:00,74.2,68.0,29.65,NNE,17,0.0,0.0,81,0.00,,,0.01,Wunderground v.1.15,2013-07-01 15:58:00,
2013-07-01 10:59:00,74.3,68.1,29.65,NNE,16,0.0,0.0,81,0.00,,,0.01,Wunderground v.1.15,2013-07-01 15:59:00,
2013-07-01 11:00:00,74.3,68.1,29.65,NNE,16,0.0,0.0,81,0.00,,,0.01,Wunderground v.1.15,2013-07-01 16:00:00,
2013-07-01 11:01:00,74.4,68.5,29.65,NNE,15,0.0,1.0,82,0.00,,,0.01,Wunderground v.1.15,2013-07-01 16:01:00,
2013-07-01 11:02:00,74.5,68.3,29.65,NNE,15,0.0,1.0,81,0.00,,,0.01,Wunderground v.1.15,2013-07-01 16:02:00,
2013-07-01 11:03:00,74.5,68.3,29.65,NNE,16,0.0,1.0,81,0.00,,,0.01,Wunderground v.1.15,2013-07-01 16:03:00,
2013-07-01 11:04:00,74.6,68.4,29.65,NNE,16,0.0,1.0,81,0.00,,,0.01,Wunderground v.1.15,2013-07-01 16:04:00,
2013-07-01 11:05:00,74.6,68.4,29.65,NNE,15,0.0,1.0,81,0.00,,,0.01,Wunderground v.1.15,2013-07-01 16:05:00,
2013-07-01 11:06:00,74.6,68.7,29.65,NNE,15,0.0,0.0,82,0.00,,,0.01,Wunderground v.1.15,2013-07-01 16:06:00,
2013-07-01 11:07:00,74.7,68.5,29.65,NNE,15,0.0,0.0,81,0.00,,,0.01,Wunderground v.1.15,2013-07-01 16:07:00,
2013-07-01 11:09:00,74.7,68.5,29.65,NNE,15,0.0,0.0,81,0.00,,,0.01,Wunderground v.1.15,2013-07-01 16:09:00,
2013-07-01 11:10:00,74.7,68.5,29.65,NNE,15,0.0,0.0,81,0.00,,,0.01,Wunderground v.1.15,2013-07-01 16:10:00,
2013-07-01 11:11:00,74.7,68.5,29.64,NNE,15,0.0,0.0,81,0.00,,,0.01,Wunderground v.1.15,2013-07-01 16:11:00,
2013-07-01 11:12:00,74.7,68.5,29.64,NNE,16,0.0,0.0,81,0.00,,,0.01,Wunderground v.1.15,2013-07-01 16:12:00,
2013-07-01 11:14:00,74.7,68.5,29.64,NNE,16,0.0,0.0,81,0.00,,,0.01,Wunderground v.1.15,2013-07-01 16:14:00,
2013-07-01 11:15:00,74.6,68.4,29.64,NNE,16,0.0,0.0,81,0.00,,,0.01,Wunderground v.1.15,2013-07-01 16:15:00,
2013-07-01 11:16:00,74.6,68.4,29.64,NNE,16,0.0,0.0,81,0.00,,,0.01,Wunderground v.1.15,2013-07-01 16:16:00,
2013-07-01 11:17:00,74.6,68.4,29.64,NNE,16,0.0,0.0,81,0.00,,,0.01,Wunderground v.1.15,2013-07-01 16:17:00,
2013-07-01 11:19:00,74.7,68.8,29.64,NNE,16,0.0,0.0,82,0.00,,,0.01,Wunderground v.1.15,2013-07-01 16:19:00,
2013-07-01 11:20:00,74.8,68.9,29.64,NNE,15,0.0,0.0,82,0.00,,,0.01,Wunderground v.1.15,2013-07-01 16:20:00,
2013-07-01 11:22:00,74.9,69.0,29.64,NNE,16,0.0,0.0,82,0.00,,,0.01,Wunderground v.1.15,2013-07-01 16:22:00,
2013-07-01 11:23:00,75.0,69.1,29.64,NNE,16,0.0,0.0,82,0.00,,,0.01,Wunderground v.1.15,2013-07-01 16:23:00,
2013-07-01 11:24:00,75.1,69.2,29.64,NNE,16,0.0,1.0,82,0.00,,,0.01,Wunderground v.1.15,2013-07-01 16:24:00,
2013-07-01 11:25:00,75.3,69.4,29.64,NNE,15,0.0,1.0,82,0.00,,,0.01,Wunderground v.1.15,2013-07-01 16:25:00,
2013-07-01 11:27:00,75.3,68.3,29.64,NE,42,3.0,3.0,79,0.00,,,0.01,Wunderground v.1.15,2013-07-01 16:27:00,
2013-07-01 11:28:00,75.2,67.5,29.63,NNW,348,0.0,4.0,77,0.00,,,0.01,Wunderground v.1.15,2013-07-01 16:28:00,
2013-07-01 11:29:00,75.2,68.2,29.63,NNW,348,0.0,4.0,79,0.00,,,0.01,Wunderground v.1.15,2013-07-01 16:29:00,
2013-07-01 11:30:00,75.3,68.7,29.64,NNE,26,0.0,4.0,80,0.00,,,0.01,Wunderground v.1.15,2013-07-01 16:30:00,
2013-07-01 11:33:00,75.3,68.7,29.63,NNE,29,0.0,4.0,80,0.00,,,0.01,Wunderground v.1.15,2013-07-01 16:33:00,
2013-07-01 11:34:00,75.4,69.5,29.64,NNE,29,0.0,4.0,82,0.00,,,0.01,Wunderground v.1.15,2013-07-01 16:34:00,
2013-07-01 11:36:00,75.5,67.8,29.63,NNE,28,0.0,4.0,77,0.00,,,0.01,Wunderground v.1.15,2013-07-01 16:36:00,
2013-07-01 11:38:00,75.7,68.7,29.63,WNW,297,0.0,1.0,79,0.00,,,0.01,Wunderground v.1.15,2013-07-01 16:38:00,
2013-07-01 11:39:00,75.7,68.4,29.63,WNW,298,0.0,1.0,78,0.00,,,0.01,Wunderground v.1.15,2013-07-01 16:39:00,
2013-07-01 11:41:00,75.8,68.4,29.63,North,360,3.0,3.0,78,0.00,,,0.01,Wunderground v.1.15,2013-07-01 16:41:00,
2013-07-01 11:43:00,76.0,69.0,29.63,WSW,244,0.0,3.0,79,0.00,,,0.01,Wunderground v.1.15,2013-07-01 16:43:00,
2013-07-01 11:44:00,76.0,69.0,29.64,WSW,258,0.0,3.0,79,0.00,,,0.01,Wunderground v.1.15,2013-07-01 16:44:00,
2013-07-01 11:46:00,76.2,68.5,29.64,WSW,258,0.0,0.0,77,0.00,,,0.01,Wunderground v.1.15,2013-07-01 16:46:00,
2013-07-01 11:49:00,76.5,68.7,29.63,WNW,283,0.0,0.0,77,0.00,,,0.01,Wunderground v.1.15,2013-07-01 16:49:00,
2013-07-01 11:50:00,76.5,68.7,29.63,WSW,246,0.0,0.0,77,0.00,,,0.01,Wunderground v.1.15,2013-07-01 16:50:00,
2013-07-01 11:51:00,76.7,69.3,29.64,WSW,253,0.0,0.0,78,0.00,,,0.01,Wunderground v.1.15,2013-07-01 16:51:00,
2013-07-01 11:54:00,76.6,68.5,29.64,WSW,254,0.0,0.0,76,0.00,,,0.01,Wunderground v.1.15,2013-07-01 16:54:00,
2013-07-01 11:55:00,76.6,68.1,29.64,WSW,254,0.0,0.0,75,0.00,,,0.01,Wunderground v.1.15,2013-07-01 16:55:00,
2013-07-01 11:56:00,76.6,68.1,29.64,WSW,254,0.0,0.0,75,0.00,,,0.01,Wunderground v.1.15,2013-07-01 16:56:00,
2013-07-01 11:59:00,76.5,68.4,29.63,WSW,254,0.0,0.0,76,0.00,,,0.01,Wunderground v.1.15,2013-07-01 16:59:00,
2013-07-01 12:00:00,76.5,68.7,29.63,WSW,254,0.0,0.0,77,0.00,,,0.01,Wunderground v.1.15,2013-07-01 17:00:00,
2013-07-01 12:01:00,76.5,68.7,29.63,WSW,254,0.0,0.0,77,0.00,,,0.01,Wunderground v.1.15,2013-07-01 17:01:00,
2013-07-01 12:02:00,76.6,68.8,29.63,WSW,248,0.0,0.0,77,0.00,,,0.01,Wunderground v.1.15,2013-07-01 17:02:00,
2013-07-01 12:05:00,77.0,68.9,29.63,WSW,249,0.0,0.0,76,0.00,,,0.01,Wunderground v.1.15,2013-07-01 17:05:00,
2013-07-01 12:07:00,77.2,69.4,29.64,WSW,249,0.0,0.0,77,0.00,,,0.01,Wunderground v.1.15,2013-07-01 17:07:00,
2013-07-01 12:10:00,77.3,68.8,29.64,South,188,0.0,0.0,75,0.00,,,0.01,Wunderground v.1.15,2013-07-01 17:10:00,
2013-07-01 12:12:00,77.4,68.9,29.64,South,187,0.0,0.0,75,0.00,,,0.01,Wunderground v.1.15,2013-07-01 17:12:00,
2013-07-01 12:13:00,77.5,68.9,29.64,SSW,192,1.0,1.0,75,0.00,,,0.01,Wunderground v.1.15,2013-07-01 17:13:00,
2013-07-01 12:15:00,77.6,69.4,29.63,South,191,0.0,1.0,76,0.00,,,0.01,Wunderground v.1.15,2013-07-01 17:15:00,
2013-07-01 12:17:00,77.7,68.4,29.63,SSW,194,0.0,4.0,73,0.00,,,0.01,Wunderground v.1.15,2013-07-01 17:17:00,
2013-07-01 12:18:00,77.8,69.2,29.64,WNW,302,3.0,4.0,75,0.00,,,0.01,Wunderground v.1.15,2013-07-01 17:18:00,
2013-07-01 12:19:00,77.8,69.2,29.63,WNW,303,0.0,4.0,75,0.00,,,0.01,Wunderground v.1.15,2013-07-01 17:19:00,
2013-07-01 12:21:00,78.0,68.6,29.64,WNW,303,0.0,4.0,73,0.00,,,0.01,Wunderground v.1.15,2013-07-01 17:21:00,
2013-07-01 12:22:00,78.2,69.6,29.63,WNW,302,0.0,4.0,75,0.00,,,0.01,Wunderground v.1.15,2013-07-01 17:22:00,
2013-07-01 12:23:00,78.2,68.8,29.63,WNW,303,0.0,4.0,73,0.00,,,0.01,Wunderground v.1.15,2013-07-01 17:23:00,
2013-07-01 12:24:00,78.2,68.8,29.64,WNW,302,0.0,4.0,73,0.00,,,0.01,Wunderground v.1.15,2013-07-01 17:24:00,
2013-07-01 12:27:00,78.2,69.6,29.64,WNW,302,0.0,0.0,75,0.00,,,0.01,Wunderground v.1.15,2013-07-01 17:27:00,
2013-07-01 12:28:00,78.2,69.6,29.64,NW,306,0.0,0.0,75,0.00,,,0.01,Wunderground v.1.15,2013-07-01 17:28:00,
2013-07-01 12:30:00,78.1,68.7,29.64,NW,306,0.0,0.0,73,0.00,,,0.01,Wunderground v.1.15,2013-07-01 17:30:00,
2013-07-01 12:32:00,77.8,68.4,29.64,NW,321,0.0,3.0,73,0.00,,,0.01,Wunderground v.1.15,2013-07-01 17:32:00,
2013-07-01 12:33:00,77.6,68.3,29.64,NW,311,0.0,3.0,73,0.00,,,0.01,Wunderground v.1.15,2013-07-01 17:33:00,
2013-07-01 12:34:00,77.5,68.2,29.64,NW,311,0.0,3.0,73,0.00,,,0.01,Wunderground v.1.15,2013-07-01 17:34:00,
2013-07-01 12:35:00,77.2,67.9,29.64,NW,311,0.0,3.0,73,0.00,,,0.01,Wunderground v.1.15,2013-07-01 17:35:00,
2013-07-01 12:36:00,77.1,67.8,29.64,NW,311,0.0,3.0,73,0.00,,,0.01,Wunderground v.1.15,2013-07-01 17:36:00,
2013-07-01 12:37:00,76.9,68.0,29.64,NNW,344,0.0,0.0,74,0.00,,,0.01,Wunderground v.1.15,2013-07-01 17:37:00,
2013-07-01 12:38:00,76.8,67.5,29.64,NNW,344,0.0,0.0,73,0.00,,,0.01,Wunderground v.1.15,2013-07-01 17:38:00,
2013-07-01 12:39:00,76.6,67.7,29.64,NNW,344,0.0,0.0,74,0.00,,,0.01,Wunderground v.1.15,2013-07-01 17:39:00,
2013-07-01 12:41:00,76.5,68.0,29.64,NNW,344,1.0,1.0,75,0.00,,,0.01,Wunderground v.1.15,2013-07-01 17:41:00,
2013-07-01 12:43:00,76.3,68.2,29.64,NE,46,0.0,2.0,76,0.00,,,0.01,Wunderground v.1.15,2013-07-01 17:43:00,
2013-07-01 12:44:00,76.2,68.1,29.64,ENE,70,1.0,2.0,76,0.00,,,0.01,Wunderground v.1.15,2013-07-01 17:44:00,
2013-07-01 12:46:00,76.3,67.8,29.63,ENE,57,3.0,3.0,75,0.00,,,0.01,Wunderground v.1.15,2013-07-01 17:46:00,
2013-07-01 12:47:00,76.3,68.2,29.63,ESE,105,0.0,3.0,76,0.00,,,0.01,Wunderground v.1.15,2013-07-01 17:47:00,
2013-07-01 12:48:00,76.4,68.3,29.64,ESE,105,0.0,3.0,76,0.00,,,0.01,Wunderground v.1.15,2013-07-01 17:48:00,
2013-07-01 12:50:00,76.5,68.0,29.64,WSW,256,1.0,4.0,75,0.00,,,0.01,Wunderground v.1.15,2013-07-01 17:50:00,
2013-07-01 12:51:00,76.5,67.6,29.64,WSW,256,0.0,4.0,74,0.00,,,0.01,Wunderground v.1.15,2013-07-01 17:51:00,
2013-07-01 12:52:00,76.4,67.9,29.64,WNW,294,0.0,4.0,75,0.00,,,0.01,Wunderground v.1.15,2013-07-01 17:52:00,
2013-07-01 12:53:00,76.4,67.9,29.64,WNW,294,0.0,4.0,75,0.00,,,0.01,Wunderground v.1.15,2013-07-01 17:53:00,
2013-07-01 12:55:00,76.3,67.8,29.64,WNW,294,1.0,4.0,75,0.00,,,0.01,Wunderground v.1.15,2013-07-01 17:55:00,
2013-07-01 12:57:00,76.2,67.3,29.64,WNW,294,0.0,0.0,74,0.00,,,0.01,Wunderground v.1.15,2013-07-01 17:57:00,
2013-07-01 12:58:00,76.1,67.6,29.64,WNW,294,0.0,0.0,75,0.00,,,0.01,Wunderground v.1.15,2013-07-01 17:58:00,
2013-07-01 12:59:00,76.1,67.6,29.64,WNW,294,0.0,0.0,75,0.00,,,0.01,Wunderground v.1.15,2013-07-01 17:59:00,
2013-07-01 13:00:00,76.0,67.1,29.64,NNE,21,0.0,4.0,74,0.00,,,0.01,Wunderground v.1.15,2013-07-01 18:00:00,
2013-07-01 13:03:00,76.0,67.5,29.64,North,360,0.0,4.0,75,0.00,,,0.01,Wunderground v.1.15,2013-07-01 18:03:00,
2013-07-01 13:04:00,76.0,67.9,29.63,North,360,0.0,4.0,76,0.00,,,0.01,Wunderground v.1.15,2013-07-01 18:04:00,
2013-07-01 13:06:00,76.1,68.4,29.63,North,360,0.0,0.0,77,0.00,,,0.01,Wunderground v.1.15,2013-07-01 18:06:00,
2013-07-01 13:08:00,76.1,68.4,29.63,North,360,0.0,0.0,77,0.00,,,0.01,Wunderground v.1.15,2013-07-01 18:08:00,
2013-07-01 13:09:00,76.2,68.8,29.63,North,360,0.0,0.0,78,0.00,,,0.01,Wunderground v.1.15,2013-07-01 18:09:00,
2013-07-01 13:10:00,76.3,68.9,29.63,North,360,0.0,0.0,78,0.00,,,0.01,Wunderground v.1.15,2013-07-01 18:10:00,
2013-07-01 13:13:00,76.5,68.7,29.63,NNW,335,0.0,0.0,77,0.00,,,0.01,Wunderground v.1.15,2013-07-01 18:13:00,
2013-07-01 13:14:00,76.5,68.7,29.63,NNW,335,0.0,0.0,77,0.00,,,0.01,Wunderground v.1.15,2013-07-01 18:14:00,
2013-07-01 13:15:00,76.5,68.7,29.63,NNW,335,0.0,0.0,77,0.00,,,0.01,Wunderground v.1.15,2013-07-01 18:15:00,
2013-07-01 13:18:00,76.6,68.5,29.63,North,11,0.0,2.0,76,0.00,,,0.01,Wunderground v.1.15,2013-07-01 18:18:00,
2013-07-01 13:19:00,76.7,68.9,29.63,North,11,0.0,2.0,77,0.00,,,0.01,Wunderground v.1.15,2013-07-01 18:19:00,
2013-07-01 13:20:00,76.7,68.9,29.63,North,10,0.0,2.0,77,0.00,,,0.01,Wunderground v.1.15,2013-07-01 18:20:00,
2013-07-01 13:21:00,76.8,69.0,29.63,North,10,0.0,2.0,77,0.00,,,0.01,Wunderground v.1.15,2013-07-01 18:21:00,
2013-07-01 13:24:00,77.1,69.3,29.63,NW,319,0.0,2.0,77,0.00,,,0.01,Wunderground v.1.15,2013-07-01 18:24:00,
2013-07-01 13:25:00,77.3,69.1,29.63,NW,312,0.0,4.0,76,0.00,,,0.01,Wunderground v.1.15,2013-07-01 18:25:00,
2013-07-01 13:26:00,77.4,69.2,29.63,NW,312,0.0,4.0,76,0.00,,,0.01,Wunderground v.1.15,2013-07-01 18:26:00,
2013-07-01 13:29:00,77.8,69.2,29.63,West,268,1.0,1.0,75,0.00,,,0.01,Wunderground v.1.15,2013-07-01 18:29:00,
2013-07-01 13:30:00,78.0,69.0,29.62,West,267,3.0,3.0,74,0.00,,,0.01,Wunderground v.1.15,2013-07-01 18:30:00,
2013-07-01 13:31:00,78.0,68.2,29.62,West,267,3.0,3.0,72,0.00,,,0.01,Wunderground v.1.15,2013-07-01 18:31:00,
2013-07-01 13:32:00,78.1,68.3,29.62,WNW,297,2.0,5.0,72,0.00,,,0.01,Wunderground v.1.15,2013-07-01 18:32:00,
2013-07-01 13:34:00,78.4,67.4,29.62,WSW,248,0.0,5.0,69,0.00,,,0.01,Wunderground v.1.15,2013-07-01 18:34:00,
2013-07-01 13:35:00,78.4,67.4,29.62,WSW,248,0.0,5.0,69,0.00,,,0.01,Wunderground v.1.15,2013-07-01 18:35:00,
2013-07-01 13:36:00,78.4,67.8,29.62,WSW,248,0.0,1.0,70,0.00,,,0.01,Wunderground v.1.15,2013-07-01 18:36:00,
2013-07-01 13:37:00,78.4,67.8,29.63,WSW,250,0.0,1.0,70,0.00,,,0.01,Wunderground v.1.15,2013-07-01 18:37:00,
2013-07-01 13:40:00,78.5,67.5,29.62,NNW,330,0.0,6.0,69,0.00,,,0.01,Wunderground v.1.15,2013-07-01 18:40:00,
2013-07-01 13:41:00,78.5,67.9,29.62,NNW,348,0.0,6.0,70,0.00,,,0.01,Wunderground v.1.15,2013-07-01 18:41:00,
2013-07-01 13:42:00,78.6,67.6,29.62,NW,315,0.0,6.0,69,0.00,,,0.01,Wunderground v.1.15,2013-07-01 18:42:00,
2013-07-01 13:45:00,78.7,68.5,29.62,NW,304,0.0,6.0,71,0.00,,,0.01,Wunderground v.1.15,2013-07-01 18:45:00,
2013-07-01 13:46:00,78.7,68.1,29.62,NW,304,0.0,0.0,70,0.00,,,0.01,Wunderground v.1.15,2013-07-01 18:46:00,
2013-07-01 13:47:00,78.7,68.1,29.62,NW,304,4.0,4.0,70,0.00,,,0.01,Wunderground v.1.15,2013-07-01 18:47:00,
2013-07-01 13:48:00,78.7,68.1,29.62,NW,311,4.0,4.0,70,0.00,,,0.01,Wunderground v.1.15,2013-07-01 18:48:00,
2013-07-01 13:51:00,78.4,67.8,29.62,NNW,344,2.0,7.0,70,0.00,,,0.01,Wunderground v.1.15,2013-07-01 18:51:00,
2013-07-01 13:52:00,78.4,67.8,29.62,SW,215,0.0,7.0,70,0.00,,,0.01,Wunderground v.1.15,2013-07-01 18:52:00,
2013-07-01 13:53:00,78.3,67.7,29.62,SW,215,0.0,7.0,70,0.00,,,0.01,Wunderground v.1.15,2013-07-01 18:53:00,
2013-07-01 13:54:00,78.3,68.5,29.62,SW,215,0.0,7.0,72,0.00,,,0.01,Wunderground v.1.15,2013-07-01 18:54:00,
2013-07-01 13:57:00,78.2,68.4,29.62,SW,218,0.0,1.0,72,0.00,,,0.01,Wunderground v.1.15,2013-07-01 18:57:00,
2013-07-01 13:58:00,78.2,68.0,29.62,SW,218,0.0,1.0,71,0.00,,,0.01,Wunderground v.1.15,2013-07-01 18:58:00,
2013-07-01 14:00:00,78.2,67.6,29.62,NNE,26,0.0,8.0,70,0.00,,,0.01,Wunderground v.1.15,2013-07-01 19:00:00,
2013-07-01 14:02:00,78.5,67.9,29.62,NW,304,0.0,8.0,70,0.00,,,0.01,Wunderground v.1.15,2013-07-01 19:02:00,
2013-07-01 14:03:00,78.5,67.5,29.62,NW,304,0.0,8.0,69,0.00,,,0.01,Wunderground v.1.15,2013-07-01 19:03:00,
2013-07-01 14:05:00,78.5,67.5,29.62,NW,304,0.0,8.0,69,0.00,,,0.01,Wunderground v.1.15,2013-07-01 19:05:00,
2013-07-01 14:07:00,78.4,68.2,29.62,NNE,24,2.0,4.0,71,0.00,,,0.01,Wunderground v.1.15,2013-07-01 19:07:00,
2013-07-01 14:08:00,78.4,68.2,29.62,NNW,346,0.0,4.0,71,0.00,,,0.01,Wunderground v.1.15,2013-07-01 19:08:00,
2013-07-01 14:09:00,78.5,68.3,29.62,NNE,29,0.0,4.0,71,0.00,,,0.01,Wunderground v.1.15,2013-07-01 19:09:00,
2013-07-01 14:11:00,78.6,68.8,29.62,NNE,18,0.0,4.0,72,0.00,,,0.01,Wunderground v.1.15,2013-07-01 19:11:00,
2013-07-01 14:12:00,78.7,69.3,29.62,NNE,19,0.0,4.0,73,0.00,,,0.01,Wunderground v.1.15,2013-07-01 19:12:00,
2013-07-01 14:13:00,78.7,68.9,29.62,NNE,19,0.0,4.0,72,0.00,,,0.01,Wunderground v.1.15,2013-07-01 19:13:00,
2013-07-01 14:14:00,78.9,69.1,29.62,NNE,19,0.0,4.0,72,0.00,,,0.01,Wunderground v.1.15,2013-07-01 19:14:00,
2013-07-01 14:16:00,79.1,69.3,29.62,ENE,71,0.0,0.0,72,0.00,,,0.01,Wunderground v.1.15,2013-07-01 19:16:00,
2013-07-01 14:18:00,79.3,69.5,29.62,ENE,71,0.0,0.0,72,0.00,,,0.01,Wunderground v.1.15,2013-07-01 19:18:00,
2013-07-01 14:19:00,79.4,69.6,29.62,ENE,71,0.0,0.0,72,0.00,,,0.01,Wunderground v.1.15,2013-07-01 19:19:00,
2013-07-01 14:20:00,79.7,68.6,29.62,NE,34,0.0,4.0,69,0.00,,,0.01,Wunderground v.1.15,2013-07-01 19:20:00,
2013-07-01 14:22:00,79.9,68.8,29.62,NW,323,1.0,5.0,69,0.00,,,0.01,Wunderground v.1.15,2013-07-01 19:22:00,
2013-07-01 14:23:00,80.0,68.9,29.62,NW,319,2.0,5.0,69,0.00,,,0.01,Wunderground v.1.15,2013-07-01 19:23:00,
2013-07-01 14:24:00,80.0,68.5,29.62,NW,307,0.0,5.0,68,0.00,,,0.01,Wunderground v.1.15,2013-07-01 19:24:00,
2013-07-01 14:25:00,80.1,68.2,29.62,NW,307,1.0,5.0,67,0.00,,,0.01,Wunderground v.1.15,2013-07-01 19:25:00,
2013-07-01 14:27:00,80.2,69.5,29.62,West,279,2.0,3.0,70,0.00,,,0.01,Wunderground v.1.15,2013-07-01 19:27:00,
2013-07-01 14:28:00,80.3,69.2,29.62,West,279,0.0,3.0,69,0.00,,,0.01,Wunderground v.1.15,2013-07-01 19:28:00,
2013-07-01 14:29:00,80.4,69.3,29.62,West,279,0.0,3.0,69,0.00,,,0.01,Wunderground v.1.15,2013-07-01 19:29:00,
2013-07-01 14:30:00,80.5,69.0,29.62,West,280,3.0,3.0,68,0.00,,,0.01,Wunderground v.1.15,2013-07-01 19:30:00,
2013-07-01 14:32:00,80.5,69.0,29.62,West,280,1.0,3.0,68,0.00,,,0.01,Wunderground v.1.15,2013-07-01 19:32:00,
2013-07-01 14:34:00,80.5,69.0,29.62,West,281,0.0,3.0,68,0.00,,,0.01,Wunderground v.1.15,2013-07-01 19:34:00,
2013-07-01 14:35:00,80.4,69.3,29.62,NNE,32,0.0,5.0,69,0.00,,,0.01,Wunderground v.1.15,2013-07-01 19:35:00,
2013-07-01 14:36:00,80.3,68.3,29.62,NW,309,5.0,5.0,67,0.00,,,0.01,Wunderground v.1.15,2013-07-01 19:36:00,
2013-07-01 14:38:00,80.0,68.1,29.62,NW,308,3.0,5.0,67,0.00,,,0.01,Wunderground v.1.15,2013-07-01 19:38:00,
2013-07-01 14:39:00,79.6,68.1,29.62,NW,308,1.0,5.0,68,0.00,,,0.01,Wunderground v.1.15,2013-07-01 19:39:00,
2013-07-01 14:40:00,79.6,68.1,29.62,NW,308,0.0,5.0,68,0.00,,,0.01,Wunderground v.1.15,2013-07-01 19:40:00,
2013-07-01 14:41:00,79.3,68.2,29.62,NW,307,2.0,5.0,69,0.00,,,0.01,Wunderground v.1.15,2013-07-01 19:41:00,
2013-07-01 14:43:00,79.0,68.0,29.62,WNW,298,0.0,5.0,69,0.00,,,0.01,Wunderground v.1.15,2013-07-01 19:43:00,
2013-07-01 14:44:00,78.8,67.8,29.62,WNW,299,3.0,5.0,69,0.00,,,0.01,Wunderground v.1.15,2013-07-01 19:44:00,
2013-07-01 14:45:00,78.7,67.7,29.62,NNW,348,0.0,5.0,69,0.00,,,0.01,Wunderground v.1.15,2013-07-01 19:45:00,
2013-07-01 14:46:00,78.7,67.7,29.62,NNW,348,0.0,5.0,69,0.00,,,0.01,Wunderground v.1.15,2013-07-01 19:46:00,
2013-07-01 14:48:00,78.6,67.6,29.62,NW,307,1.0,2.0,69,0.00,,,0.01,Wunderground v.1.15,2013-07-01 19:48:00,
2013-07-01 14:50:00,78.5,67.5,29.62,NW,318,0.0,4.0,69,0.00,,,0.01,Wunderground v.1.15,2013-07-01 19:50:00,
2013-07-01 14:52:00,78.5,67.9,29.62,North,351,3.0,4.0,70,0.00,,,0.01,Wunderground v.1.15,2013-07-01 19:52:00,
2013-07-01 14:54:00,78.7,67.7,29.62,NW,314,2.0,4.0,69,0.00,,,0.01,Wunderground v.1.15,2013-07-01 19:54:00,
2013-07-01 14:55:00,78.7,66.4,29.62,NW,319,1.0,4.0,66,0.00,,,0.01,Wunderground v.1.15,2013-07-01 19:55:00,
2013-07-01 14:56:00,78.7,66.8,29.62,WNW,301,2.0,4.0,67,0.00,,,0.01,Wunderground v.1.15,2013-07-01 19:56:00,
2013-07-01 14:57:00,78.7,67.2,29.62,WNW,301,0.0,2.0,68,0.00,,,0.01,Wunderground v.1.15,2013-07-01 19:57:00,
2013-07-01 14:59:00,78.8,67.3,29.62,West,261,0.0,2.0,68,0.00,,,0.01,Wunderground v.1.15,2013-07-01 19:59:00,
2013-07-01 15:00:00,78.8,67.3,29.62,West,261,0.0,2.0,68,0.00,,,0.01,Wunderground v.1.15,2013-07-01 20:00:00,
2013-07-01 15:01:00,78.9,67.4,29.62,NNE,32,0.0,2.0,68,0.00,,,0.01,Wunderground v.1.15,2013-07-01 20:01:00,
2013-07-01 15:02:00,78.9,67.4,29.62,NNE,26,2.0,4.0,68,0.00,,,0.01,Wunderground v.1.15,2013-07-01 20:02:00,
2013-07-01 15:04:00,78.7,67.7,29.62,NW,323,0.0,4.0,69,0.00,,,0.01,Wunderground v.1.15,2013-07-01 20:04:00,
2013-07-01 15:05:00,78.7,68.1,29.62,NW,323,0.0,4.0,70,0.00,,,0.01,Wunderground v.1.15,2013-07-01 20:05:00,
2013-07-01 15:07:00,78.7,67.7,29.63,NNE,26,1.0,2.0,69,0.00,,,0.01,Wunderground v.1.15,2013-07-01 20:07:00,
2013-07-01 15:08:00,78.7,68.1,29.63,NW,307,2.0,2.0,70,0.00,,,0.01,Wunderground v.1.15,2013-07-01 20:08:00,
2013-07-01 15:09:00,78.5,67.5,29.63,NW,307,0.0,3.0,69,0.00,,,0.01,Wunderground v.1.15,2013-07-01 20:09:00,
2013-07-01 15:11:00,78.4,67.8,29.63,NNE,24,5.0,5.0,70,0.00,,,0.01,Wunderground v.1.15,2013-07-01 20:11:00,
2013-07-01 15:12:00,78.3,68.1,29.63,NW,326,2.0,5.0,71,0.00,,,0.01,Wunderground v.1.15,2013-07-01 20:12:00,
2013-07-01 15:13:00,78.2,68.0,29.63,NW,326,1.0,5.0,71,0.00,,,0.01,Wunderground v.1.15,2013-07-01 20:13:00,
2013-07-01 15:15:00,77.9,67.7,29.63,NW,324,0.0,5.0,71,0.00,,,0.01,Wunderground v.1.15,2013-07-01 20:15:00,
2013-07-01 15:16:00,77.9,68.1,29.63,NW,323,0.0,5.0,72,0.00,,,0.01,Wunderground v.1.15,2013-07-01 20:16:00,
2013-07-01 15:17:00,77.8,68.8,29.63,NW,325,0.0,1.0,74,0.00,,,0.01,Wunderground v.1.15,2013-07-01 20:17:00,
2013-07-01 15:18:00,77.8,68.8,29.62,NNW,344,0.0,1.0,74,0.00,,,0.01,Wunderground v.1.15,2013-07-01 20:18:00,
2013-07-01 15:20:00,77.9,68.5,29.62,NE,41,0.0,2.0,73,0.00,,,0.01,Wunderground v.1.15,2013-07-01 20:20:00,
2013-07-01 15:21:00,78.1,68.7,29.62,North,355,2.0,2.0,73,0.00,,,0.01,Wunderground v.1.15,2013-07-01 20:21:00,
2013-07-01 15:23:00,78.3,68.5,29.63,NW,307,1.0,3.0,72,0.00,,,0.01,Wunderground v.1.15,2013-07-01 20:23:00,
2013-07-01 15:25:00,78.7,68.5,29.62,NW,308,4.0,4.0,71,0.00,,,0.01,Wunderground v.1.15,2013-07-01 20:25:00,
2013-07-01 15:27:00,78.7,67.7,29.62,West,273,0.0,2.0,69,0.00,,,0.01,Wunderground v.1.15,2013-07-01 20:27:00,
2013-07-01 15:28:00,78.7,68.1,29.62,West,273,1.0,3.0,70,0.00,,,0.01,Wunderground v.1.15,2013-07-01 20:28:00,
2013-07-01 15:29:00,78.7,67.2,29.62,West,273,0.0,3.0,68,0.00,,,0.01,Wunderground v.1.15,2013-07-01 20:29:00,
2013-07-01 15:32:00,78.7,67.7,29.62,West,274,0.0,3.0,69,0.00,,,0.01,Wunderground v.1.15,2013-07-01 20:32:00,
2013-07-01 15:33:00,78.7,68.1,29.63,West,273,0.0,3.0,70,0.00,,,0.01,Wunderground v.1.15,2013-07-01 20:33:00,
2013-07-01 15:34:00,78.7,68.5,29.63,West,273,1.0,3.0,71,0.00,,,0.01,Wunderground v.1.15,2013-07-01 20:34:00,
2013-07-01 15:36:00,78.8,68.2,29.62,West,275,1.0,3.0,70,0.00,,,0.01,Wunderground v.1.15,2013-07-01 20:36:00,
2013-07-01 15:37:00,78.8,68.2,29.62,West,275,0.0,1.0,70,0.00,,,0.01,Wunderground v.1.15,2013-07-01 20:37:00,
2013-07-01 15:39:00,78.7,67.7,29.62,NNE,29,0.0,2.0,69,0.00,,,0.01,Wunderground v.1.15,2013-07-01 20:39:00,
2013-07-01 15:41:00,78.7,67.7,29.62,NNE,29,0.0,2.0,69,0.00,,,0.01,Wunderground v.1.15,2013-07-01 20:41:00,
2013-07-01 15:42:00,78.7,68.1,29.62,NNE,29,0.0,2.0,70,0.00,,,0.01,Wunderground v.1.15,2013-07-01 20:42:00,
2013-07-01 15:44:00,78.5,68.3,29.63,East,94,1.0,2.0,71,0.00,,,0.01,Wunderground v.1.15,2013-07-01 20:44:00,
2013-07-01 15:45:00,78.5,68.3,29.62,East,88,0.0,2.0,71,0.00,,,0.01,Wunderground v.1.15,2013-07-01 20:45:00,
2013-07-01 15:46:00,78.4,67.8,29.63,NE,37,2.0,2.0,70,0.00,,,0.01,Wunderground v.1.15,2013-07-01 20:46:00,
2013-07-01 15:47:00,78.3,68.1,29.62,NNW,340,0.0,2.0,71,0.00,,,0.01,Wunderground v.1.15,2013-07-01 20:47:00,
2013-07-01 15:49:00,78.1,67.5,29.62,NNE,19,0.0,3.0,70,0.00,,,0.01,Wunderground v.1.15,2013-07-01 20:49:00,
2013-07-01 15:50:00,78.1,67.5,29.62,NNE,18,0.0,3.0,70,0.00,,,0.01,Wunderground v.1.15,2013-07-01 20:50:00,
2013-07-01 15:51:00,78.0,67.4,29.62,NNE,18,0.0,3.0,70,0.00,,,0.01,Wunderground v.1.15,2013-07-01 20:51:00,
2013-07-01 15:52:00,78.0,67.8,29.62,NNE,18,0.0,3.0,71,0.00,,,0.01,Wunderground v.1.15,2013-07-01 20:52:00,
2013-07-01 15:55:00,78.1,67.5,29.62,NNW,332,3.0,6.0,70,0.00,,,0.01,Wunderground v.1.15,2013-07-01 20:55:00,
2013-07-01 15:56:00,78.2,67.6,29.62,NNW,331,0.0,6.0,70,0.00,,,0.01,Wunderground v.1.15,2013-07-01 20:56:00,
2013-07-01 15:58:00,78.4,68.2,29.62,WNW,300,0.0,1.0,71,0.00,,,0.01,Wunderground v.1.15,2013-07-01 20:58:00,
2013-07-01 16:00:00,78.6,67.6,29.62,NE,36,3.0,6.0,69,0.00,,,0.01,Wunderground v.1.15,2013-07-01 21:00:00,
2013-07-01 16:01:00,78.7,66.8,29.62,NE,38,0.0,6.0,67,0.00,,,0.01,Wunderground v.1.15,2013-07-01 21:01:00,
2013-07-01 16:04:00,78.8,67.8,29.62,West,281,0.0,6.0,69,0.00,,,0.01,Wunderground v.1.15,2013-07-01 21:04:00,
2013-07-01 16:05:00,79.0,67.1,29.62,WNW,282,0.0,6.0,67,0.00,,,0.01,Wunderground v.1.15,2013-07-01 21:05:00,
2013-07-01 16:07:00,79.1,66.3,29.62,North,355,3.0,8.0,65,0.00,,,0.01,Wunderground v.1.15,2013-07-01 21:07:00,
2013-07-01 16:09:00,79.1,67.2,29.62,West,281,4.0,8.0,67,0.00,,,0.01,Wunderground v.1.15,2013-07-01 21:09:00,
2013-07-01 16:10:00,79.0,66.2,29.62,North,350,3.0,9.0,65,0.00,,,0.01,Wunderground v.1.15,2013-07-01 21:10:00,
2013-07-01 16:11:00,78.9,66.6,29.62,NNW,348,2.0,9.0,66,0.00,,,0.01,Wunderground v.1.15,2013-07-01 21:11:00,
2013-07-01 16:12:00,78.8,66.5,29.62,NNW,344,2.0,9.0,66,0.00,,,0.01,Wunderground v.1.15,2013-07-01 21:12:00,
2013-07-01 16:14:00,78.5,66.6,29.62,NNW,348,2.0,9.0,67,0.00,,,0.01,Wunderground v.1.15,2013-07-01 21:14:00,
2013-07-01 16:15:00,78.4,66.5,29.62,NE,52,1.0,9.0,67,0.00,,,0.01,Wunderground v.1.15,2013-07-01 21:15:00,
2013-07-01 16:16:00,78.3,66.9,29.62,NE,51,0.0,2.0,68,0.00,,,0.01,Wunderground v.1.15,2013-07-01 21:16:00,
2013-07-01 16:17:00,78.2,66.8,29.62,NE,51,0.0,2.0,68,0.00,,,0.01,Wunderground v.1.15,2013-07-01 21:17:00,
2013-07-01 16:20:00,78.0,66.6,29.62,NE,42,0.0,2.0,68,0.00,,,0.01,Wunderground v.1.15,2013-07-01 21:20:00,
2013-07-01 16:21:00,77.9,67.3,29.62,NE,42,0.0,2.0,70,0.00,,,0.01,Wunderground v.1.15,2013-07-01 21:21:00,
2013-07-01 16:23:00,77.8,67.2,29.62,NE,42,0.0,2.0,70,0.00,,,0.01,Wunderground v.1.15,2013-07-01 21:23:00,
2013-07-01 16:25:00,77.8,66.8,29.62,ENE,60,0.0,3.0,69,0.00,,,0.01,Wunderground v.1.15,2013-07-01 21:25:00,
2013-07-01 16:26:00,77.8,66.8,29.62,ENE,60,0.0,0.0,69,0.00,,,0.01,Wunderground v.1.15,2013-07-01 21:26:00,
2013-07-01 16:27:00,77.8,66.8,29.62,ENE,60,0.0,0.0,69,0.00,,,0.01,Wunderground v.1.15,2013-07-01 21:27:00,
2013-07-01 16:28:00,77.9,66.9,29.62,ENE,60,0.0,0.0,69,0.00,,,0.01,Wunderground v.1.15,2013-07-01 21:28:00,
2013-07-01 16:30:00,78.2,66.8,29.62,North,360,0.0,0.0,68,0.00,,,0.01,Wunderground v.1.15,2013-07-01 21:30:00,
2013-07-01 16:32:00,78.3,66.9,29.62,North,350,0.0,0.0,68,0.00,,,0.01,Wunderground v.1.15,2013-07-01 21:32:00,
2013-07-01 16:33:00,78.6,66.3,29.62,North,11,0.0,6.0,66,0.00,,,0.01,Wunderground v.1.15,2013-07-01 21:33:00,
2013-07-01 16:34:00,78.7,66.4,29.62,NNW,342,0.0,6.0,66,0.00,,,0.01,Wunderground v.1.15,2013-07-01 21:34:00,
2013-07-01 16:36:00,78.7,66.8,29.62,NNW,342,0.0,6.0,67,0.00,,,0.01,Wunderground v.1.15,2013-07-01 21:36:00,
2013-07-01 16:37:00,79.0,67.1,29.62,NNW,340,0.0,0.0,67,0.00,,,0.01,Wunderground v.1.15,2013-07-01 21:37:00,
2013-07-01 16:39:00,79.1,66.8,29.62,NW,310,0.0,1.0,66,0.00,,,0.01,Wunderground v.1.15,2013-07-01 21:39:00,
2013-07-01 16:40:00,79.3,67.0,29.62,NW,311,0.0,1.0,66,0.00,,,0.01,Wunderground v.1.15,2013-07-01 21:40:00,
2013-07-01 16:41:00,79.3,66.5,29.62,NW,317,0.0,1.0,65,0.00,,,0.01,Wunderground v.1.15,2013-07-01 21:41:00,
2013-07-01 16:43:00,79.4,66.6,29.62,NNW,338,1.0,3.0,65,0.00,,,0.01,Wunderground v.1.15,2013-07-01 21:43:00,
2013-07-01 16:44:00,79.4,67.0,29.62,NNW,338,0.0,3.0,66,0.00,,,0.01,Wunderground v.1.15,2013-07-01 21:44:00,
2013-07-01 16:45:00,79.4,67.0,29.62,NNW,338,0.0,3.0,66,0.00,,,0.01,Wunderground v.1.15,2013-07-01 21:45:00,
2013-07-01 16:46:00,79.3,67.0,29.62,NNW,338,0.0,3.0,66,0.00,,,0.01,Wunderground v.1.15,2013-07-01 21:46:00,
2013-07-01 16:47:00,79.3,67.0,29.62,NNW,338,0.0,0.0,66,0.00,,,0.01,Wunderground v.1.15,2013-07-01 21:47:00,
2013-07-01 16:48:00,79.2,66.4,29.62,NNW,338,0.0,0.0,65,0.00,,,0.01,Wunderground v.1.15,2013-07-01 21:48:00,
2013-07-01 16:49:00,79.1,66.8,29.63,NNW,338,0.0,0.0,66,0.00,,,0.01,Wunderground v.1.15,2013-07-01 21:49:00,
2013-07-01 16:50:00,78.9,67.0,29.63,NNW,338,0.0,0.0,67,0.00,,,0.01,Wunderground v.1.15,2013-07-01 21:50:00,
2013-07-01 16:52:00,78.7,66.8,29.63,NNE,32,0.0,0.0,67,0.00,,,0.01,Wunderground v.1.15,2013-07-01 21:52:00,
2013-07-01 16:53:00,78.7,66.8,29.63,NNE,32,0.0,0.0,67,0.00,,,0.01,Wunderground v.1.15,2013-07-01 21:53:00,
2013-07-01 16:54:00,78.5,67.1,29.63,NNE,32,0.0,0.0,68,0.00,,,0.01,Wunderground v.1.15,2013-07-01 21:54:00,
2013-07-01 16:55:00,78.4,67.0,29.63,NNE,32,0.0,0.0,68,0.00,,,0.01,Wunderground v.1.15,2013-07-01 21:55:00,
2013-07-01 16:57:00,78.2,66.8,29.63,NNE,32,0.0,0.0,68,0.00,,,0.01,Wunderground v.1.15,2013-07-01 21:57:00,
2013-07-01 16:59:00,78.0,66.6,29.63,NW,321,0.0,2.0,68,0.00,,,0.01,Wunderground v.1.15,2013-07-01 21:59:00,
2013-07-01 17:00:00,77.8,66.4,29.63,NW,321,0.0,2.0,68,0.00,,,0.01,Wunderground v.1.15,2013-07-01 22:00:00,
2013-07-01 17:01:00,77.8,67.2,29.63,WNW,294,5.0,5.0,70,0.00,,,0.01,Wunderground v.1.15,2013-07-01 22:01:00,
2013-07-01 17:02:00,77.8,65.5,29.63,SW,226,4.0,5.0,66,0.00,,,0.01,Wunderground v.1.15,2013-07-01 22:02:00,
2013-07-01 17:03:00,77.8,65.5,29.63,West,275,0.0,5.0,66,0.00,,,0.01,Wunderground v.1.15,2013-07-01 22:03:00,
2013-07-01 17:04:00,77.8,66.4,29.63,West,264,0.0,5.0,68,0.00,,,0.01,Wunderground v.1.15,2013-07-01 22:04:00,
2013-07-01 17:05:00,77.9,66.1,29.63,West,267,0.0,5.0,67,0.00,,,0.01,Wunderground v.1.15,2013-07-01 22:05:00,
2013-07-01 17:06:00,77.9,66.1,29.63,NNE,26,3.0,3.0,67,0.00,,,0.01,Wunderground v.1.15,2013-07-01 22:06:00,
2013-07-01 17:07:00,78.0,66.2,29.63,NW,309,2.0,3.0,67,0.00,,,0.01,Wunderground v.1.15,2013-07-01 22:07:00,
2013-07-01 17:08:00,78.1,65.8,29.62,NW,325,0.0,4.0,66,0.00,,,0.01,Wunderground v.1.15,2013-07-01 22:08:00,
2013-07-01 17:09:00,78.1,65.8,29.63,NW,325,0.0,4.0,66,0.00,,,0.01,Wunderground v.1.15,2013-07-01 22:09:00,
2013-07-01 17:12:00,78.3,66.0,29.62,NNE,28,0.0,4.0,66,0.00,,,0.01,Wunderground v.1.15,2013-07-01 22:12:00,
2013-07-01 17:13:00,78.3,66.0,29.62,NNE,28,0.0,4.0,66,0.00,,,0.01,Wunderground v.1.15,2013-07-01 22:13:00,
2013-07-01 17:14:00,78.4,66.1,29.62,NNW,330,0.0,4.0,66,0.00,,,0.01,Wunderground v.1.15,2013-07-01 22:14:00,
2013-07-01 17:17:00,78.4,66.1,29.62,NE,56,0.0,1.0,66,0.00,,,0.01,Wunderground v.1.15,2013-07-01 22:17:00,
2013-07-01 17:18:00,78.4,65.7,29.62,North,9,0.0,5.0,65,0.00,,,0.01,Wunderground v.1.15,2013-07-01 22:18:00,
2013-07-01 17:19:00,78.5,65.8,29.62,North,9,0.0,5.0,65,0.00,,,0.01,Wunderground v.1.15,2013-07-01 22:19:00,
2013-07-01 17:22:00,78.5,66.2,29.62,North,9,1.0,5.0,66,0.00,,,0.01,Wunderground v.1.15,2013-07-01 22:22:00,
2013-07-01 17:23:00,78.5,65.3,29.62,NW,325,5.0,11.0,64,0.00,,,0.01,Wunderground v.1.15,2013-07-01 22:23:00,
2013-07-01 17:24:00,78.5,65.3,29.62,NW,323,3.0,11.0,64,0.00,,,0.01,Wunderground v.1.15,2013-07-01 22:24:00,
2013-07-01 17:28:00,78.6,66.3,29.62,NNE,33,0.0,3.0,66,0.00,,,0.01,Wunderground v.1.15,2013-07-01 22:28:00,
2013-07-01 17:29:00,78.7,66.8,29.62,NNE,33,0.0,3.0,67,0.00,,,0.01,Wunderground v.1.15,2013-07-01 22:29:00,
2013-07-01 17:30:00,78.7,66.8,29.62,NNE,33,0.0,3.0,67,0.00,,,0.01,Wunderground v.1.15,2013-07-01 22:30:00,
2013-07-01 17:33:00,78.7,65.9,29.62,NNE,24,0.0,6.0,65,0.00,,,0.01,Wunderground v.1.15,2013-07-01 22:33:00,
2013-07-01 17:34:00,78.7,66.4,29.63,ESE,115,0.0,6.0,66,0.00,,,0.01,Wunderground v.1.15,2013-07-01 22:34:00,
2013-07-01 17:35:00,78.7,66.4,29.63,ESE,115,0.0,6.0,66,0.00,,,0.01,Wunderground v.1.15,2013-07-01 22:35:00,
2013-07-01 17:39:00,78.8,66.5,29.63,NNW,334,0.0,9.0,66,0.00,,,0.01,Wunderground v.1.15,2013-07-01 22:39:00,
2013-07-01 17:40:00,78.9,67.0,29.63,NW,313,4.0,9.0,67,0.00,,,0.01,Wunderground v.1.15,2013-07-01 22:40:00,
2013-07-01 17:41:00,78.9,67.0,29.63,NW,306,4.0,9.0,67,0.00,,,0.01,Wunderground v.1.15,2013-07-01 22:41:00,
2013-07-01 17:44:00,78.7,66.8,29.63,NNW,337,0.0,9.0,67,0.00,,,0.01,Wunderground v.1.15,2013-07-01 22:44:00,
2013-07-01 17:45:00,78.7,66.8,29.63,NNW,337,0.0,9.0,67,0.00,,,0.01,Wunderground v.1.15,2013-07-01 22:45:00,
2013-07-01 17:46:00,78.7,67.2,29.63,North,360,4.0,5.0,68,0.00,,,0.01,Wunderground v.1.15,2013-07-01 22:46:00,
2013-07-01 17:50:00,78.4,66.5,29.63,NNW,342,0.0,8.0,67,0.00,,,0.01,Wunderground v.1.15,2013-07-01 22:50:00,
2013-07-01 17:51:00,78.2,66.8,29.63,NE,45,1.0,8.0,68,0.00,,,0.01,Wunderground v.1.15,2013-07-01 22:51:00,
2013-07-01 17:55:00,78.0,66.6,29.63,NNW,340,0.0,8.0,68,0.00,,,0.01,Wunderground v.1.15,2013-07-01 22:55:00,
2013-07-01 17:56:00,78.0,66.6,29.63,NNW,343,3.0,3.0,68,0.00,,,0.01,Wunderground v.1.15,2013-07-01 22:56:00,
2013-07-01 17:57:00,78.0,66.2,29.63,North,10,7.0,7.0,67,0.00,,,0.01,Wunderground v.1.15,2013-07-01 22:57:00,
2013-07-01 18:01:00,77.7,65.9,29.63,NNW,334,7.0,7.0,67,0.00,,,0.01,Wunderground v.1.15,2013-07-01 23:01:00,
2013-07-01 18:02:00,77.6,65.3,29.63,WSW,250,2.0,7.0,66,0.00,,,0.01,Wunderground v.1.15,2013-07-01 23:02:00,
2013-07-01 18:06:00,77.2,64.5,29.64,NW,310,0.0,1.0,65,0.00,,,0.01,Wunderground v.1.15,2013-07-01 23:06:00,
2013-07-01 18:07:00,77.2,64.5,29.64,NNE,25,0.0,1.0,65,0.00,,,0.01,Wunderground v.1.15,2013-07-01 23:07:00,
2013-07-01 18:08:00,77.1,64.4,29.64,NNW,344,2.0,2.0,65,0.00,,,0.01,Wunderground v.1.15,2013-07-01 23:08:00,
2013-07-01 18:12:00,77.1,65.3,29.64,SW,233,4.0,8.0,67,0.00,,,0.01,Wunderground v.1.15,2013-07-01 23:12:00,
2013-07-01 18:13:00,77.1,65.3,29.64,NNW,332,1.0,8.0,67,0.00,,,0.01,Wunderground v.1.15,2013-07-01 23:13:00,
2013-07-01 18:17:00,77.0,64.8,29.64,WNW,299,0.0,1.0,66,0.00,,,0.01,Wunderground v.1.15,2013-07-01 23:17:00,
2013-07-01 18:18:00,77.0,64.8,29.64,WNW,303,0.0,1.0,66,0.00,,,0.01,Wunderground v.1.15,2013-07-01 23:18:00,
2013-07-01 18:23:00,77.0,65.2,29.64,North,351,0.0,4.0,67,0.00,,,0.01,Wunderground v.1.15,2013-07-01 23:23:00,
2013-07-01 18:24:00,77.0,65.2,29.64,North,350,0.0,4.0,67,0.00,,,0.01,Wunderground v.1.15,2013-07-01 23:24:00,
2013-07-01 18:28:00,76.9,65.1,29.64,North,11,0.0,2.0,67,0.00,,,0.01,Wunderground v.1.15,2013-07-01 23:28:00,
2013-07-01 18:29:00,76.9,66.0,29.64,North,11,0.0,2.0,69,0.00,,,0.01,Wunderground v.1.15,2013-07-01 23:29:00,
2013-07-01 18:30:00,76.9,65.1,29.65,NNE,12,0.0,5.0,67,0.00,,,0.01,Wunderground v.1.15,2013-07-01 23:30:00,
2013-07-01 18:33:00,76.8,65.0,29.65,East,92,3.0,5.0,67,0.00,,,0.01,Wunderground v.1.15,2013-07-01 23:33:00,
2013-07-01 18:34:00,76.7,64.9,29.65,ENE,65,0.0,5.0,67,0.00,,,0.01,Wunderground v.1.15,2013-07-01 23:34:00,
2013-07-01 18:35:00,76.7,65.3,29.65,NE,34,0.0,5.0,68,0.00,,,0.01,Wunderground v.1.15,2013-07-01 23:35:00,
2013-07-01 18:39:00,76.6,65.2,29.65,NNW,348,0.0,0.0,68,0.00,,,0.01,Wunderground v.1.15,2013-07-01 23:39:00,
2013-07-01 18:40:00,76.6,65.2,29.65,NNW,341,0.0,0.0,68,0.00,,,0.01,Wunderground v.1.15,2013-07-01 23:40:00,
2013-07-01 18:41:00,76.5,65.1,29.65,NW,326,0.0,3.0,68,0.00,,,0.01,Wunderground v.1.15,2013-07-01 23:41:00,
2013-07-01 18:44:00,76.6,65.2,29.65,North,9,0.0,3.0,68,0.00,,,0.01,Wunderground v.1.15,2013-07-01 23:44:00,
2013-07-01 18:45:00,76.6,65.2,29.65,North,355,0.0,3.0,68,0.00,,,0.01,Wunderground v.1.15,2013-07-01 23:45:00,
2013-07-01 18:47:00,76.6,65.2,29.65,NNW,341,0.0,0.0,68,0.00,,,0.01,Wunderground v.1.15,2013-07-01 23:47:00,
2013-07-01 18:48:00,76.6,65.7,29.65,NNW,348,0.0,0.0,69,0.00,,,0.01,Wunderground v.1.15,2013-07-01 23:48:00,
2013-07-01 18:49:00,76.7,65.3,29.65,NW,321,0.0,0.0,68,0.00,,,0.01,Wunderground v.1.15,2013-07-01 23:49:00,
2013-07-01 18:51:00,76.7,64.9,29.65,WNW,299,0.0,4.0,67,0.00,,,0.01,Wunderground v.1.15,2013-07-01 23:51:00,
2013-07-01 18:52:00,76.7,65.3,29.65,WSW,245,1.0,4.0,68,0.00,,,0.01,Wunderground v.1.15,2013-07-01 23:52:00,
2013-07-01 18:53:00,76.7,64.9,29.65,North,355,0.0,4.0,67,0.00,,,0.01,Wunderground v.1.15,2013-07-01 23:53:00,
2013-07-01 18:55:00,76.7,65.3,29.65,North,5,0.0,4.0,68,0.00,,,0.01,Wunderground v.1.15,2013-07-01 23:55:00,
2013-07-01 18:56:00,76.7,64.9,29.65,NW,309,0.0,0.0,67,0.00,,,0.01,Wunderground v.1.15,2013-07-01 23:56:00,
2013-07-01 18:58:00,76.7,64.5,29.65,WNW,299,0.0,0.0,66,0.00,,,0.01,Wunderground v.1.15,2013-07-01 23:58:00,
2013-07-01 18:59:00,76.7,64.5,29.65,WNW,299,0.0,0.0,66,0.00,,,0.01,Wunderground v.1.15,2013-07-01 23:59:00,
2013-07-01 19:00:00,76.7,64.5,29.65,WNW,300,0.0,0.0,66,0.00,,,0.01,Wunderground v.1.15,2013-07-02 00:00:00,
2013-07-01 19:01:00,76.7,64.9,29.65,WNW,294,0.0,0.0,67,0.00,,,0.01,Wunderground v.1.15,2013-07-02 00:01:00,
2013-07-01 19:02:00,76.6,64.4,29.65,NW,311,0.0,0.0,66,0.00,,,0.01,Wunderground v.1.15,2013-07-02 00:02:00,
2013-07-01 19:03:00,76.6,65.2,29.65,NW,311,0.0,0.0,68,0.00,,,0.01,Wunderground v.1.15,2013-07-02 00:03:00,
2013-07-01 19:04:00,76.6,65.2,29.65,NW,311,0.0,0.0,68,0.00,,,0.01,Wunderground v.1.15,2013-07-02 00:04:00,
2013-07-01 19:05:00,76.6,65.2,29.66,NW,311,0.0,0.0,68,0.00,,,0.01,Wunderground v.1.15,2013-07-02 00:05:00,
2013-07-01 19:06:00,76.6,65.2,29.65,WNW,288,2.0,2.0,68,0.00,,,0.01,Wunderground v.1.15,2013-07-02 00:06:00,
2013-07-01 19:08:00,76.6,64.8,29.66,North,360,0.0,5.0,67,0.00,,,0.01,Wunderground v.1.15,2013-07-02 00:08:00,
2013-07-01 19:09:00,76.5,64.7,29.66,North,355,0.0,5.0,67,0.00,,,0.01,Wunderground v.1.15,2013-07-02 00:09:00,
2013-07-01 19:10:00,76.6,64.8,29.66,NW,311,0.0,5.0,67,0.00,,,0.01,Wunderground v.1.15,2013-07-02 00:10:00,
2013-07-01 19:12:00,76.5,64.7,29.66,NE,48,0.0,6.0,67,0.00,,,0.01,Wunderground v.1.15,2013-07-02 00:12:00,
2013-07-01 19:13:00,76.5,64.7,29.66,WNW,295,4.0,6.0,67,0.00,,,0.01,Wunderground v.1.15,2013-07-02 00:13:00,
2013-07-01 19:14:00,76.5,64.7,29.66,NNE,18,0.0,6.0,67,0.00,,,0.01,Wunderground v.1.15,2013-07-02 00:14:00,
2013-07-01 19:16:00,76.5,64.3,29.66,North,355,1.0,1.0,66,0.00,,,0.01,Wunderground v.1.15,2013-07-02 00:16:00,
2013-07-01 19:18:00,76.5,64.3,29.66,NNE,24,3.0,7.0,66,0.00,,,0.01,Wunderground v.1.15,2013-07-02 00:18:00,
2013-07-01 19:19:00,76.5,64.3,29.66,NNE,19,0.0,7.0,66,0.00,,,0.01,Wunderground v.1.15,2013-07-02 00:19:00,
2013-07-01 19:21:00,76.4,64.2,29.66,NW,318,1.0,7.0,66,0.00,,,0.01,Wunderground v.1.15,2013-07-02 00:21:00,
2013-07-01 19:23:00,76.4,63.8,29.66,West,265,1.0,7.0,65,0.00,,,0.01,Wunderground v.1.15,2013-07-02 00:23:00,
2013-07-01 19:24:00,76.3,63.7,29.66,North,5,3.0,7.0,65,0.00,,,0.01,Wunderground v.1.15,2013-07-02 00:24:00,
2013-07-01 19:26:00,76.2,63.6,29.66,NW,318,2.0,2.0,65,0.00,,,0.01,Wunderground v.1.15,2013-07-02 00:26:00,
2013-07-01 19:28:00,76.1,63.5,29.66,West,273,0.0,5.0,65,0.00,,,0.01,Wunderground v.1.15,2013-07-02 00:28:00,
2013-07-01 19:29:00,76.1,63.5,29.66,West,273,0.0,5.0,65,0.00,,,0.01,Wunderground v.1.15,2013-07-02 00:29:00,
2013-07-01 19:30:00,76.0,63.4,29.66,WNW,302,0.0,5.0,65,0.00,,,0.01,Wunderground v.1.15,2013-07-02 00:30:00,
2013-07-01 19:32:00,76.0,63.4,29.66,NNW,342,3.0,5.0,65,0.00,,,0.01,Wunderground v.1.15,2013-07-02 00:32:00,
2013-07-01 19:34:00,75.9,63.3,29.66,WNW,292,0.0,5.0,65,0.00,,,0.01,Wunderground v.1.15,2013-07-02 00:34:00,
2013-07-01 19:35:00,75.9,63.7,29.66,WNW,292,0.0,5.0,66,0.00,,,0.01,Wunderground v.1.15,2013-07-02 00:35:00,
2013-07-01 19:38:00,75.8,63.6,29.66,WSW,252,0.0,0.0,66,0.00,,,0.01,Wunderground v.1.15,2013-07-02 00:38:00,
2013-07-01 19:39:00,75.7,63.5,29.67,WSW,252,0.0,1.0,66,0.00,,,0.01,Wunderground v.1.15,2013-07-02 00:39:00,
2013-07-01 19:40:00,75.7,64.0,29.67,WNW,299,0.0,1.0,67,0.00,,,0.01,Wunderground v.1.15,2013-07-02 00:40:00,
2013-07-01 19:41:00,75.7,63.5,29.67,WNW,286,4.0,4.0,66,0.00,,,0.01,Wunderground v.1.15,2013-07-02 00:41:00,
2013-07-01 19:43:00,75.6,63.9,29.67,NW,319,6.0,6.0,67,0.00,,,0.01,Wunderground v.1.15,2013-07-02 00:43:00,
2013-07-01 19:45:00,75.5,63.8,29.66,WNW,288,3.0,6.0,67,0.00,,,0.01,Wunderground v.1.15,2013-07-02 00:45:00,
2013-07-01 19:46:00,75.5,63.8,29.67,NW,311,0.0,6.0,67,0.00,,,0.01,Wunderground v.1.15,2013-07-02 00:46:00,
2013-07-01 19:48:00,75.4,64.1,29.67,NE,56,0.0,1.0,68,0.00,,,0.01,Wunderground v.1.15,2013-07-02 00:48:00,
2013-07-01 19:50:00,75.4,64.1,29.67,WNW,295,0.0,1.0,68,0.00,,,0.01,Wunderground v.1.15,2013-07-02 00:50:00,
2013-07-01 19:51:00,75.4,64.1,29.67,NNW,342,0.0,1.0,68,0.00,,,0.01,Wunderground v.1.15,2013-07-02 00:51:00,
2013-07-01 19:53:00,75.3,64.0,29.67,NNW,344,0.0,1.0,68,0.00,,,0.01,Wunderground v.1.15,2013-07-02 00:53:00,
2013-07-01 19:55:00,75.2,63.9,29.67,WNW,292,0.0,2.0,68,0.00,,,0.01,Wunderground v.1.15,2013-07-02 00:55:00,
2013-07-01 19:56:00,75.2,63.9,29.67,WNW,296,0.0,0.0,68,0.00,,,0.01,Wunderground v.1.15,2013-07-02 00:56:00,
2013-07-01 19:59:00,75.0,63.7,29.66,WNW,295,0.0,2.0,68,0.00,,,0.01,Wunderground v.1.15,2013-07-02 00:59:00,
2013-07-01 20:01:00,74.8,63.5,29.67,NE,49,0.0,2.0,68,0.00,,,0.01,Wunderground v.1.15,2013-07-02 01:01:00,
2013-07-01 20:02:00,74.8,63.9,29.67,NE,48,0.0,2.0,69,0.00,,,0.01,Wunderground v.1.15,2013-07-02 01:02:00,
2013-07-01 20:04:00,74.6,62.9,29.67,NNW,338,0.0,2.0,67,0.00,,,0.01,Wunderground v.1.15,2013-07-02 01:04:00,
2013-07-01 20:06:00,74.5,63.2,29.67,NNW,337,0.0,0.0,68,0.00,,,0.01,Wunderground v.1.15,2013-07-02 01:06:00,
2013-07-01 20:07:00,74.5,63.2,29.67,NNW,336,0.0,0.0,68,0.00,,,0.01,Wunderground v.1.15,2013-07-02 01:07:00,
2013-07-01 20:09:00,74.4,63.1,29.67,WNW,300,0.0,1.0,68,0.00,,,0.01,Wunderground v.1.15,2013-07-02 01:09:00,
2013-07-01 20:12:00,74.3,62.6,29.67,NW,323,0.0,1.0,67,0.00,,,0.01,Wunderground v.1.15,2013-07-02 01:12:00,
2013-07-01 20:13:00,74.2,62.5,29.67,NW,325,0.0,1.0,67,0.00,,,0.01,Wunderground v.1.15,2013-07-02 01:13:00,
2013-07-01 20:14:00,74.2,63.0,29.67,NW,325,0.0,1.0,68,0.00,,,0.01,Wunderground v.1.15,2013-07-02 01:14:00,
2013-07-01 20:18:00,74.1,62.9,29.67,West,277,0.0,0.0,68,0.00,,,0.01,Wunderground v.1.15,2013-07-02 01:18:00,
2013-07-01 20:19:00,74.1,63.3,29.67,West,278,0.0,0.0,69,0.00,,,0.01,Wunderground v.1.15,2013-07-02 01:19:00,
2013-07-01 20:23:00,73.9,62.7,29.67,West,281,0.0,2.0,68,0.00,,,0.01,Wunderground v.1.15,2013-07-02 01:23:00,
2013-07-01 20:24:00,73.9,62.7,29.67,West,281,0.0,2.0,68,0.00,,,0.01,Wunderground v.1.15,2013-07-02 01:24:00,
2013-07-01 20:26:00,73.8,62.6,29.67,NW,313,2.0,2.0,68,0.00,,,0.01,Wunderground v.1.15,2013-07-02 01:26:00,
2013-07-01 20:28:00,73.7,62.5,29.67,West,267,0.0,2.0,68,0.00,,,0.01,Wunderground v.1.15,2013-07-02 01:28:00,
2013-07-01 20:29:00,73.6,62.4,29.67,WSW,249,0.0,3.0,68,0.00,,,0.01,Wunderground v.1.15,2013-07-02 01:29:00,
2013-07-01 20:30:00,73.6,62.4,29.67,WSW,249,0.0,3.0,68,0.00,,,0.01,Wunderground v.1.15,2013-07-02 01:30:00,
2013-07-01 20:33:00,73.5,61.9,29.67,West,267,0.0,3.0,67,0.00,,,0.01,Wunderground v.1.15,2013-07-02 01:33:00,
2013-07-01 20:35:00,73.4,61.8,29.67,WNW,292,0.0,3.0,67,0.00,,,0.01,Wunderground v.1.15,2013-07-02 01:35:00,
2013-07-01 20:38:00,73.4,61.8,29.67,South,188,0.0,1.0,67,0.00,,,0.01,Wunderground v.1.15,2013-07-02 01:38:00,
2013-07-01 20:39:00,73.4,61.8,29.67,SSW,198,0.0,1.0,67,0.00,,,0.01,Wunderground v.1.15,2013-07-02 01:39:00,
2013-07-01 20:40:00,73.3,61.7,29.68,SSW,198,0.0,1.0,67,0.00,,,0.01,Wunderground v.1.15,2013-07-02 01:40:00,
2013-07-01 20:44:00,73.3,62.1,29.68,North,5,0.0,1.0,68,0.00,,,0.01,Wunderground v.1.15,2013-07-02 01:44:00,
2013-07-01 20:45:00,73.3,62.5,29.68,NNW,331,0.0,1.0,69,0.00,,,0.01,Wunderground v.1.15,2013-07-02 01:45:00,
2013-07-01 20:46:00,73.2,62.0,29.68,NNW,331,0.0,0.0,68,0.00,,,0.01,Wunderground v.1.15,2013-07-02 01:46:00,
2013-07-01 20:49:00,73.1,61.9,29.68,WSW,245,0.0,3.0,68,0.00,,,0.01,Wunderground v.1.15,2013-07-02 01:49:00,
2013-07-01 20:50:00,73.1,61.9,29.68,WSW,245,0.0,3.0,68,0.00,,,0.01,Wunderground v.1.15,2013-07-02 01:50:00,
2013-07-01 20:51:00,73.1,61.9,29.67,SW,229,0.0,3.0,68,0.00,,,0.01,Wunderground v.1.15,2013-07-02 01:51:00,
2013-07-01 20:54:00,73.0,62.2,29.67,NNE,22,0.0,5.0,69,0.00,,,0.01,Wunderground v.1.15,2013-07-02 01:54:00,
2013-07-01 20:55:00,73.0,62.2,29.67,ESE,105,0.0,5.0,69,0.00,,,0.01,Wunderground v.1.15,2013-07-02 01:55:00,
2013-07-01 20:56:00,73.0,62.2,29.67,NNE,13,2.0,4.0,69,0.00,,,0.01,Wunderground v.1.15,2013-07-02 01:56:00,
2013-07-01 20:57:00,73.0,62.2,29.67,NNE,13,0.0,4.0,69,0.00,,,0.01,Wunderground v.1.15,2013-07-02 01:57:00,
2013-07-01 21:00:00,73.0,61.8,29.68,North,11,0.0,4.0,68,0.00,,,0.01,Wunderground v.1.15,2013-07-02 02:00:00,
2013-07-01 21:01:00,73.0,61.8,29.67,ESE,108,0.0,4.0,68,0.00,,,0.01,Wunderground v.1.15,2013-07-02 02:01:00,
2013-07-01 21:02:00,72.9,62.1,29.67,ESE,107,0.0,4.0,69,0.00,,,0.01,Wunderground v.1.15,2013-07-02 02:02:00,
2013-07-01 21:05:00,72.9,62.1,29.68,ESE,108,0.0,4.0,69,0.00,,,0.01,Wunderground v.1.15,2013-07-02 02:05:00,
2013-07-01 21:07:00,72.8,62.0,29.68,ESE,108,0.0,0.0,69,0.00,,,0.01,Wunderground v.1.15,2013-07-02 02:07:00,
2013-07-01 21:08:00,72.8,62.4,29.68,SSW,200,0.0,0.0,70,0.00,,,0.01,Wunderground v.1.15,2013-07-02 02:08:00,
2013-07-01 21:10:00,72.7,62.3,29.68,SSW,202,0.0,0.0,70,0.00,,,0.01,Wunderground v.1.15,2013-07-02 02:10:00,
2013-07-01 21:12:00,72.6,62.3,29.68,SSW,202,0.0,0.0,70,0.00,,,0.01,Wunderground v.1.15,2013-07-02 02:12:00,
2013-07-01 21:13:00,72.6,61.8,29.68,SSW,202,0.0,0.0,69,0.00,,,0.01,Wunderground v.1.15,2013-07-02 02:13:00,
2013-07-01 21:15:00,72.5,62.2,29.68,SW,222,0.0,0.0,70,0.00,,,0.01,Wunderground v.1.15,2013-07-02 02:15:00,
2013-07-01 21:17:00,72.4,62.1,29.68,SW,232,0.0,0.0,70,0.00,,,0.01,Wunderground v.1.15,2013-07-02 02:17:00,
2013-07-01 21:18:00,72.4,62.1,29.68,NNW,344,0.0,2.0,70,0.00,,,0.01,Wunderground v.1.15,2013-07-02 02:18:00,
2013-07-01 21:19:00,72.4,62.5,29.68,NNW,344,0.0,2.0,71,0.00,,,0.01,Wunderground v.1.15,2013-07-02 02:19:00,
2013-07-01 21:20:00,72.3,62.0,29.68,NNW,344,0.0,2.0,70,0.00,,,0.01,Wunderground v.1.15,2013-07-02 02:20:00,
2013-07-01 21:22:00,72.3,62.4,29.68,NNW,344,0.0,2.0,71,0.00,,,0.01,Wunderground v.1.15,2013-07-02 02:22:00,
2013-07-01 21:23:00,72.3,62.4,29.68,NNW,344,0.0,2.0,71,0.00,,,0.01,Wunderground v.1.15,2013-07-02 02:23:00,
2013-07-01 21:24:00,72.2,62.3,29.68,NNW,344,0.0,2.0,71,0.00,,,0.01,Wunderground v.1.15,2013-07-02 02:24:00,
2013-07-01 21:26:00,72.2,62.7,29.68,NNW,344,0.0,2.0,72,0.00,,,0.01,Wunderground v.1.15,2013-07-02 02:26:00,
2013-07-01 21:27:00,72.1,62.6,29.68,NNW,344,0.0,0.0,72,0.00,,,0.01,Wunderground v.1.15,2013-07-02 02:27:00,
2013-07-01 21:28:00,72.1,62.2,29.68,NNW,344,0.0,0.0,71,0.00,,,0.01,Wunderground v.1.15,2013-07-02 02:28:00,
2013-07-01 21:29:00,72.1,62.6,29.68,NNW,344,0.0,0.0,72,0.00,,,0.01,Wunderground v.1.15,2013-07-02 02:29:00,
2013-07-01 21:30:00,72.0,62.5,29.68,NNW,344,0.0,0.0,72,0.00,,,0.01,Wunderground v.1.15,2013-07-02 02:30:00,
2013-07-01 21:32:00,71.9,62.0,29.68,NNW,344,0.0,0.0,71,0.00,,,0.01,Wunderground v.1.15,2013-07-02 02:32:00,
2013-07-01 21:34:00,71.8,62.7,29.68,NNW,344,0.0,0.0,73,0.00,,,0.01,Wunderground v.1.15,2013-07-02 02:34:00,
2013-07-01 21:35:00,71.8,63.1,29.68,NNW,344,0.0,0.0,74,0.00,,,0.01,Wunderground v.1.15,2013-07-02 02:35:00,
2013-07-01 21:37:00,71.6,63.3,29.68,NNW,344,0.0,0.0,75,0.00,,,0.01,Wunderground v.1.15,2013-07-02 02:37:00,
2013-07-01 21:38:00,71.6,63.3,29.68,NNW,344,0.0,0.0,75,0.00,,,0.01,Wunderground v.1.15,2013-07-02 02:38:00,
2013-07-01 21:40:00,71.4,62.7,29.68,NNW,344,0.0,0.0,74,0.00,,,0.01,Wunderground v.1.15,2013-07-02 02:40:00,
2013-07-01 21:41:00,71.3,62.6,29.69,NNW,344,0.0,0.0,74,0.00,,,0.01,Wunderground v.1.15,2013-07-02 02:41:00,
2013-07-01 21:43:00,71.3,62.6,29.68,NNW,344,0.0,0.0,74,0.00,,,0.01,Wunderground v.1.15,2013-07-02 02:43:00,
2013-07-01 21:45:00,71.1,63.1,29.68,NNW,344,0.0,0.0,76,0.00,,,0.01,Wunderground v.1.15,2013-07-02 02:45:00,
2013-07-01 21:46:00,71.0,63.1,29.68,NNW,343,0.0,0.0,76,0.00,,,0.01,Wunderground v.1.15,2013-07-02 02:46:00,
2013-07-01 21:48:00,70.9,63.0,29.69,NNW,342,0.0,0.0,76,0.00,,,0.01,Wunderground v.1.15,2013-07-02 02:48:00,
2013-07-01 21:51:00,70.7,62.0,29.69,NNW,343,0.0,0.0,74,0.00,,,0.01,Wunderground v.1.15,2013-07-02 02:51:00,
2013-07-01 21:52:00,70.7,62.8,29.69,NNW,343,0.0,0.0,76,0.00,,,0.01,Wunderground v.1.15,2013-07-02 02:52:00,
2013-07-01 21:53:00,70.7,62.4,29.69,NNW,343,0.0,0.0,75,0.00,,,0.01,Wunderground v.1.15,2013-07-02 02:53:00,
2013-07-01 21:54:00,70.7,62.4,29.69,NNW,343,0.0,0.0,75,0.00,,,0.01,Wunderground v.1.15,2013-07-02 02:54:00,
2013-07-01 21:56:00,70.5,62.6,29.69,NNW,342,0.0,0.0,76,0.00,,,0.01,Wunderground v.1.15,2013-07-02 02:56:00,
2013-07-01 21:57:00,70.4,62.5,29.69,NNW,343,0.0,0.0,76,0.00,,,0.01,Wunderground v.1.15,2013-07-02 02:57:00,
2013-07-01 21:58:00,70.4,62.5,29.69,NNW,342,0.0,0.0,76,0.00,,,0.01,Wunderground v.1.15,2013-07-02 02:58:00,
2013-07-01 21:59:00,70.3,62.7,29.69,NNW,343,0.0,0.0,77,0.00,,,0.01,Wunderground v.1.15,2013-07-02 02:59:00,
2013-07-01 22:02:00,70.1,62.6,29.69,NNW,343,0.0,0.0,77,0.00,,,0.01,Wunderground v.1.15,2013-07-02 03:02:00,
2013-07-01 22:03:00,70.0,62.8,29.69,NNW,342,0.0,0.0,78,0.00,,,0.01,Wunderground v.1.15,2013-07-02 03:03:00,
2013-07-01 22:04:00,69.9,62.7,29.69,NNW,343,0.0,0.0,78,0.00,,,0.01,Wunderground v.1.15,2013-07-02 03:04:00,
2013-07-01 22:05:00,69.8,62.6,29.69,NNW,342,0.0,0.0,78,0.00,,,0.01,Wunderground v.1.15,2013-07-02 03:05:00,
2013-07-01 22:08:00,69.7,62.5,29.69,NNW,343,0.0,0.0,78,0.00,,,0.01,Wunderground v.1.15,2013-07-02 03:08:00,
2013-07-01 22:09:00,69.6,62.4,29.68,NNW,342,0.0,0.0,78,0.00,,,0.01,Wunderground v.1.15,2013-07-02 03:09:00,
2013-07-01 22:11:00,69.5,62.7,29.69,NNW,343,0.0,0.0,79,0.00,,,0.01,Wunderground v.1.15,2013-07-02 03:11:00,
2013-07-01 22:13:00,69.5,62.7,29.68,NNW,343,0.0,0.0,79,0.00,,,0.01,Wunderground v.1.15,2013-07-02 03:13:00,
2013-07-01 22:14:00,69.4,62.6,29.68,NNW,343,0.0,0.0,79,0.00,,,0.01,Wunderground v.1.15,2013-07-02 03:14:00,
2013-07-01 22:15:00,69.4,63.0,29.69,NNW,343,0.0,0.0,80,0.00,,,0.01,Wunderground v.1.15,2013-07-02 03:15:00,
2013-07-01 22:16:00,69.4,63.0,29.69,NNW,343,0.0,0.0,80,0.00,,,0.01,Wunderground v.1.15,2013-07-02 03:16:00,
2013-07-01 22:18:00,69.3,63.2,29.69,NNW,342,0.0,0.0,81,0.00,,,0.01,Wunderground v.1.15,2013-07-02 03:18:00,
2013-07-01 22:19:00,69.3,63.2,29.69,NNW,342,0.0,0.0,81,0.00,,,0.01,Wunderground v.1.15,2013-07-02 03:19:00,
2013-07-01 22:20:00,69.3,63.2,29.69,NNW,342,0.0,0.0,81,0.00,,,0.01,Wunderground v.1.15,2013-07-02 03:20:00,
2013-07-01 22:22:00,69.2,63.1,29.69,NNW,342,0.0,0.0,81,0.00,,,0.01,Wunderground v.1.15,2013-07-02 03:22:00,
2013-07-01 22:24:00,69.0,62.9,29.69,NNW,343,0.0,0.0,81,0.00,,,0.01,Wunderground v.1.15,2013-07-02 03:24:00,
2013-07-01 22:25:00,69.0,62.9,29.69,NNW,343,0.0,0.0,81,0.00,,,0.01,Wunderground v.1.15,2013-07-02 03:25:00,
2013-07-01 22:27:00,68.8,63.1,29.69,NNW,343,0.0,0.0,82,0.00,,,0.01,Wunderground v.1.15,2013-07-02 03:27:00,
2013-07-01 22:29:00,68.7,62.6,29.69,NNW,342,0.0,0.0,81,0.00,,,0.01,Wunderground v.1.15,2013-07-02 03:29:00,
2013-07-01 22:30:00,68.7,62.6,29.69,NNW,342,0.0,0.0,81,0.00,,,0.01,Wunderground v.1.15,2013-07-02 03:30:00,
2013-07-01 22:32:00,68.5,62.8,29.69,NNW,343,0.0,0.0,82,0.00,,,0.01,Wunderground v.1.15,2013-07-02 03:32:00,
2013-07-01 22:35:00,68.4,62.7,29.69,NNW,343,0.0,0.0,82,0.00,,,0.01,Wunderground v.1.15,2013-07-02 03:35:00,
2013-07-01 22:36:00,68.3,62.6,29.69,NNW,343,0.0,0.0,82,0.00,,,0.01,Wunderground v.1.15,2013-07-02 03:36:00,
2013-07-01 22:38:00,68.2,62.5,29.69,NNW,342,0.0,0.0,82,0.00,,,0.01,Wunderground v.1.15,2013-07-02 03:38:00,
2013-07-01 22:40:00,68.0,62.6,29.69,NNW,343,0.0,0.0,83,0.00,,,0.01,Wunderground v.1.15,2013-07-02 03:40:00,
2013-07-01 22:41:00,68.0,62.6,29.69,NNW,343,0.0,0.0,83,0.00,,,0.01,Wunderground v.1.15,2013-07-02 03:41:00,
2013-07-01 22:43:00,67.9,62.5,29.69,NNW,342,0.0,0.0,83,0.00,,,0.01,Wunderground v.1.15,2013-07-02 03:43:00,
2013-07-01 22:46:00,67.7,62.3,29.69,NNW,343,0.0,0.0,83,0.00,,,0.01,Wunderground v.1.15,2013-07-02 03:46:00,
2013-07-01 22:47:00,67.7,62.7,29.69,NNW,343,0.0,0.0,84,0.00,,,0.01,Wunderground v.1.15,2013-07-02 03:47:00,
2013-07-01 22:48:00,67.6,62.6,29.69,NNW,342,0.0,0.0,84,0.00,,,0.01,Wunderground v.1.15,2013-07-02 03:48:00,
2013-07-01 22:51:00,67.5,62.5,29.69,NNW,343,0.0,0.0,84,0.00,,,0.01,Wunderground v.1.15,2013-07-02 03:51:00,
2013-07-01 22:52:00,67.5,62.5,29.69,NNW,342,0.0,0.0,84,0.00,,,0.01,Wunderground v.1.15,2013-07-02 03:52:00,
2013-07-01 22:54:00,67.4,62.4,29.69,NNW,343,0.0,0.0,84,0.00,,,0.01,Wunderground v.1.15,2013-07-02 03:54:00,
2013-07-01 22:56:00,67.4,62.4,29.69,NNW,343,0.0,0.0,84,0.00,,,0.01,Wunderground v.1.15,2013-07-02 03:56:00,
2013-07-01 22:57:00,67.3,62.6,29.69,NNW,342,0.0,0.0,85,0.00,,,0.01,Wunderground v.1.15,2013-07-02 03:57:00,
2013-07-01 23:00:00,67.2,62.5,29.69,NNW,342,0.0,0.0,85,0.00,,,0.01,Wunderground v.1.15,2013-07-02 04:00:00,
2013-07-01 23:01:00,67.2,62.5,29.69,NNW,343,0.0,0.0,85,0.00,,,0.01,Wunderground v.1.15,2013-07-02 04:01:00,
2013-07-01 23:06:00,67.0,62.3,29.69,NNW,342,0.0,0.0,85,0.00,,,0.01,Wunderground v.1.15,2013-07-02 04:06:00,
2013-07-01 23:07:00,66.9,62.2,29.69,NNW,343,0.0,0.0,85,0.00,,,0.01,Wunderground v.1.15,2013-07-02 04:07:00,
2013-07-01 23:11:00,66.8,62.1,29.69,NNW,342,0.0,0.0,85,0.00,,,0.01,Wunderground v.1.15,2013-07-02 04:11:00,
2013-07-01 23:12:00,66.8,62.1,29.69,NNW,343,0.0,0.0,85,0.00,,,0.01,Wunderground v.1.15,2013-07-02 04:12:00,
2013-07-01 23:13:00,66.8,62.1,29.69,NNW,342,0.0,0.0,85,0.00,,,0.01,Wunderground v.1.15,2013-07-02 04:13:00,
2013-07-01 23:16:00,66.8,62.1,29.69,NNW,343,0.0,0.0,85,0.00,,,0.01,Wunderground v.1.15,2013-07-02 04:16:00,
2013-07-01 23:17:00,66.8,62.1,29.69,NNW,343,0.0,0.0,85,0.00,,,0.01,Wunderground v.1.15,2013-07-02 04:17:00,
2013-07-01 23:18:00,66.8,62.1,29.69,NNW,343,0.0,0.0,85,0.00,,,0.01,Wunderground v.1.15,2013-07-02 04:18:00,
2013-07-01 23:22:00,66.8,62.1,29.69,NNW,343,0.0,0.0,85,0.00,,,0.01,Wunderground v.1.15,2013-07-02 04:22:00,
2013-07-01 23:23:00,66.8,62.1,29.69,NNW,343,0.0,0.0,85,0.00,,,0.01,Wunderground v.1.15,2013-07-02 04:23:00,
2013-07-01 23:24:00,66.8,62.1,29.69,NNW,343,0.0,0.0,85,0.00,,,0.01,Wunderground v.1.15,2013-07-02 04:24:00,
2013-07-01 23:27:00,66.7,62.0,29.69,NNW,343,0.0,0.0,85,0.00,,,0.01,Wunderground v.1.15,2013-07-02 04:27:00,
2013-07-01 23:29:00,66.7,62.4,29.69,NNW,343,0.0,0.0,86,0.00,,,0.01,Wunderground v.1.15,2013-07-02 04:29:00,
2013-07-01 23:30:00,66.7,62.4,29.69,NNW,343,0.0,0.0,86,0.00,,,0.01,Wunderground v.1.15,2013-07-02 04:30:00,
2013-07-01 23:32:00,66.6,62.3,29.69,NNW,342,0.0,0.0,86,0.00,,,0.01,Wunderground v.1.15,2013-07-02 04:32:00,
2013-07-01 23:34:00,66.6,62.3,29.69,NNW,343,0.0,0.0,86,0.00,,,0.01,Wunderground v.1.15,2013-07-02 04:34:00,
2013-07-01 23:35:00,66.5,62.2,29.69,NNW,343,0.0,0.0,86,0.00,,,0.01,Wunderground v.1.15,2013-07-02 04:35:00,
2013-07-01 23:39:00,66.3,62.3,29.70,NNW,343,0.0,0.0,87,0.00,,,0.01,Wunderground v.1.15,2013-07-02 04:39:00,
2013-07-01 23:40:00,66.3,62.3,29.70,NNW,343,0.0,0.0,87,0.00,,,0.01,Wunderground v.1.15,2013-07-02 04:40:00,
2013-07-01 23:44:00,66.1,62.1,29.70,NNW,343,0.0,0.0,87,0.00,,,0.01,Wunderground v.1.15,2013-07-02 04:44:00,
2013-07-01 23:45:00,66.1,62.1,29.70,NNW,342,0.0,0.0,87,0.00,,,0.01,Wunderground v.1.15,2013-07-02 04:45:00,
2013-07-01 23:49:00,66.1,62.1,29.70,NNW,343,0.0,0.0,87,0.00,,,0.01,Wunderground v.1.15,2013-07-02 04:49:00,
2013-07-01 23:50:00,66.0,62.0,29.69,NNW,342,0.0,0.0,87,0.00,,,0.01,Wunderground v.1.15,2013-07-02 04:50:00,
2013-07-01 23:51:00,66.0,62.3,29.69,NNW,343,0.0,0.0,88,0.00,,,0.01,Wunderground v.1.15,2013-07-02 04:51:00,
2013-07-01 23:55:00,65.9,62.2,29.69,NNW,343,0.0,0.0,88,0.00,,,0.01,Wunderground v.1.15,2013-07-02 04:55:00,
2013-07-01 23:56:00,65.9,62.2,29.69,NNW,343,0.0,0.0,88,0.00,,,0.01,Wunderground v.1.15,2013-07-02 04:56:00,